EW6603 Weather Reports


Display with metric or nautical units.
time (UTC)temp
F
wind
direction
speed
MPH
gust
MPH
rain 1hr
in
rain 24hr
in
rain mn
in
humidity
%
barometer
mb
20260506155421 66 267 0.0 0.0 0.00 0.05 0.05 86 1009.9
20260506155331 66 304 0.0 0.0 0.00 0.05 0.05 85 1009.7
20260506155223 66 286 0.0 0.0 0.00 0.05 0.05 85 1009.7
20260506155129 66 304 0.0 0.0 0.00 0.05 0.05 85 1009.7
20260506155015 66 106 0.0 0.0 0.00 0.05 0.05 85 1009.8
20260506154921 66 89 0.0 0.0 0.00 0.05 0.05 86 1009.8
20260506154811 66 54 0.0 0.0 0.00 0.05 0.05 87 1009.7
20260506154717 66 47 0.0 0.0 0.00 0.05 0.05 87 1009.8
20260506154630 66 47 0.0 0.0 0.00 0.05 0.05 87 1009.8
20260506154615 65 47 0.0 0.0 0.00 0.05 0.05 87 1009.3
20260506154536 66 28 0.0 0.0 0.00 0.05 0.05 86 1009.9
20260506154421 66 69 0.0 0.0 0.00 0.05 0.05 87 1009.9
20260506154334 65 22 0.0 0.0 0.00 0.05 0.05 87 1009.9
20260506154224 65 67 0.0 0.0 0.00 0.05 0.05 87 1009.9
20260506154130 65 314 0.0 0.0 0.00 0.05 0.05 87 1009.8
20260506154015 65 314 0.0 0.0 0.00 0.05 0.05 87 1009.7
20260506153921 65 15 0.0 0.0 0.00 0.05 0.05 87 1009.7
20260506153834 65 269 0.0 0.0 0.00 0.05 0.05 88 1009.7
20260506153720 65 296 0.0 0.0 0.00 0.05 0.05 87 1009.7
20260506153610 65 281 0.0 0.0 0.00 0.05 0.05 88 1009.8
20260506153516 65 14 0.0 0.0 0.00 0.05 0.05 88 1009.8
20260506153449 65 38 0.0 0.0 0.00 0.05 0.05 88 1009.8
20260506153315 64 326 0.0 0.0 0.00 0.05 0.05 88 1009.9
20260506153220 64 315 0.0 0.0 0.00 0.05 0.05 88 1009.9
20260506153157 64 348 0.0 0.0 0.00 0.05 0.05 88 1009.3
20260506153146 64 360 0.0 0.0 0.00 0.05 0.05 88 1009.9
20260506153038 64 71 0.0 0.0 0.00 0.05 0.05 88 1010.0
20260506152926 64 32 0.0 0.0 0.00 0.05 0.05 88 1010.0
20260506152812 64 334 0.0 0.0 0.00 0.05 0.05 88 1009.9
20260506152719 64 318 0.0 0.0 0.00 0.05 0.05 88 1009.9
20260506152631 64 80 0.0 0.0 0.00 0.05 0.05 88 1009.8
20260506152517 64 77 0.0 0.0 0.00 0.05 0.05 88 1009.8
20260506152422 64 92 0.0 0.0 0.00 0.05 0.05 88 1009.8
20260506152313 64 5 0.0 0.0 0.00 0.05 0.05 88 1009.8
20260506152227 64 5 0.0 0.0 0.00 0.05 0.05 88 1009.8
20260506152131 64 345 0.0 0.0 0.00 0.05 0.05 88 1009.9
20260506152017 64 65 0.0 0.0 0.00 0.05 0.05 88 1009.8
20260506151923 64 303 0.0 0.0 0.00 0.05 0.05 88 1009.8
20260506151813 64 355 0.0 0.0 0.00 0.05 0.05 89 1009.8
20260506151719 63 42 0.0 0.0 0.00 0.05 0.05 89 1009.8
20260506151632 63 46 0.0 0.0 0.00 0.05 0.05 89 1009.7
20260506151519 63 319 0.0 0.0 0.00 0.05 0.05 89 1009.8
20260506151510 63 319 0.0 0.0 0.00 0.05 0.05 89 1009.2
20260506151424 63 319 0.0 0.0 0.00 0.05 0.05 89 1009.8
20260506151314 63 298 0.0 0.0 0.00 0.05 0.05 89 1009.9
20260506151220 63 298 0.0 0.0 0.00 0.05 0.05 89 1009.9
20260506151126 63 29 0.0 0.0 0.00 0.05 0.05 89 1009.9
20260506151012 63 46 0.0 0.0 0.00 0.05 0.05 89 1009.8
20260506150925 63 46 0.0 0.0 0.00 0.05 0.05 89 1009.8
20260506150811 63 50 0.0 0.0 0.00 0.05 0.05 89 1009.9
20260506150722 63 84 0.0 0.0 0.00 0.05 0.05 89 1009.9
20260506150628 63 84 0.0 0.0 0.00 0.05 0.05 89 1009.9
20260506150514 63 63 0.0 0.0 0.00 0.05 0.05 89 1009.9
20260506150447 63 70 0.0 0.0 0.00 0.05 0.05 89 1009.9
20260506150312 63 303 0.0 0.0 0.00 0.05 0.05 89 1009.9
20260506150238 63 297 0.0 0.0 0.00 0.05 0.05 89 1009.9
20260506150134 63 297 0.0 0.0 0.00 0.05 0.05 89 1009.8
20260506150020 63 325 0.0 0.0 0.00 0.05 0.05 89 1009.7
20260506150007 63 318 0.0 0.0 0.00 0.05 0.05 89 1009.1
20260506145926 63 20 0.0 0.0 0.00 0.05 0.05 89 1009.7
20260506145812 63 341 0.0 0.0 0.00 0.05 0.05 89 1009.7
20260506145718 63 342 0.0 0.0 0.00 0.05 0.05 89 1009.7
20260506145624 63 15 0.0 0.0 0.00 0.05 0.05 89 1009.7
20260506145514 63 69 0.0 0.0 0.00 0.05 0.05 89 1009.6
20260506145447 63 5 0.0 0.0 0.00 0.05 0.05 89 1009.6
20260506145312 63 39 0.0 0.0 0.00 0.05 0.05 89 1009.8
20260506145218 63 80 0.0 0.0 0.00 0.05 0.05 89 1009.8
20260506145131 63 15 0.0 0.0 0.00 0.05 0.05 89 1009.8
20260506145021 63 26 0.0 0.0 0.00 0.05 0.05 89 1009.9
20260506144927 63 86 0.0 0.0 0.00 0.05 0.05 90 1009.9
20260506144813 63 49 0.0 0.0 0.00 0.05 0.05 90 1009.8
20260506144719 63 52 0.0 0.0 0.00 0.05 0.05 90 1009.8
20260506144639 63 52 0.0 0.0 0.00 0.05 0.05 90 1009.2
20260506144625 63 52 0.0 0.0 0.00 0.05 0.05 90 1009.8
20260506144538 63 108 0.0 0.0 0.00 0.05 0.05 90 1009.9
20260506144427 63 108 0.0 0.0 0.00 0.05 0.05 90 1009.9
20260506144313 63 48 0.0 0.0 0.00 0.05 0.05 90 1009.9
20260506144246 63 48 0.0 0.0 0.00 0.05 0.05 90 1009.9
20260506144111 63 38 0.0 0.0 0.00 0.05 0.05 90 1009.9
20260506144017 63 355 0.0 0.0 0.00 0.05 0.05 90 1009.9
20260506143922 63 355 0.0 0.0 0.00 0.05 0.05 90 1009.9
20260506143812 63 30 0.0 0.0 0.00 0.05 0.05 90 1009.9
20260506143719 63 55 0.0 0.0 0.00 0.05 0.05 90 1009.9
20260506143632 63 39 0.0 0.0 0.00 0.05 0.05 90 1009.9
20260506143538 63 307 0.0 0.0 0.00 0.05 0.05 90 1010.0
20260506143429 63 339 0.0 0.0 0.00 0.05 0.05 90 1010.0
20260506143315 63 73 0.0 0.0 0.00 0.05 0.05 90 1010.0
20260506143225 63 64 0.0 0.0 0.00 0.05 0.05 90 1010.0
20260506143131 63 63 0.0 0.0 0.00 0.05 0.05 90 1010.0
20260506143023 63 57 0.0 0.0 0.00 0.05 0.05 91 1010.0
20260506143013 62 61 0.0 0.0 0.00 0.05 0.05 91 1009.5
20260506142929 63 146 0.0 0.0 0.00 0.05 0.05 91 1010.1
20260506142815 63 320 0.0 0.0 0.00 0.05 0.05 91 1010.1
20260506142721 63 294 0.0 0.0 0.00 0.05 0.05 91 1010.1
20260506142611 62 289 0.0 0.0 0.00 0.05 0.05 91 1010.0
20260506142517 62 313 0.0 0.0 0.00 0.05 0.05 91 1010.0
20260506142430 62 39 0.0 0.0 0.00 0.05 0.05 92 1010.0
20260506142315 62 58 0.0 0.0 0.00 0.05 0.05 91 1009.9
20260506142221 62 52 0.0 0.0 0.00 0.05 0.05 91 1009.9
20260506142134 62 98 0.0 0.0 0.00 0.05 0.05 91 1009.9
20260506142024 62 98 0.0 0.0 0.00 0.05 0.05 91 1009.9
20260506141930 62 103 0.0 0.0 0.00 0.05 0.05 91 1010.0
20260506141816 62 79 0.0 0.0 0.00 0.05 0.05 91 1010.1
20260506141722 62 49 0.0 0.0 0.00 0.05 0.05 92 1010.1
20260506141628 62 26 0.0 0.0 0.00 0.05 0.05 92 1010.2
20260506141536 62 19 0.0 0.0 0.00 0.05 0.05 92 1009.7
20260506141518 62 19 0.0 0.0 0.00 0.05 0.05 92 1010.3
20260506141428 62 47 0.0 0.0 0.00 0.05 0.05 92 1010.3
20260506141314 62 34 0.0 0.0 0.00 0.05 0.05 92 1010.2
20260506141220 62 46 0.0 0.0 0.00 0.05 0.05 92 1010.2
20260506141154 62 46 0.0 0.0 0.00 0.05 0.05 92 1010.2
20260506141011 62 46 0.0 0.0 0.00 0.05 0.05 92 1010.2
20260506140928 62 44 0.0 0.0 0.00 0.05 0.05 92 1010.2
20260506140834 62 37 0.0 0.0 0.00 0.05 0.05 92 1010.1
20260506140716 62 13 0.0 0.0 0.00 0.05 0.05 92 1010.1
20260506140629 62 25 0.0 0.0 0.00 0.05 0.05 92 1010.1
20260506140514 62 29 0.0 0.0 0.01 0.05 0.05 92 1010.0
20260506140421 62 24 0.0 0.0 0.01 0.05 0.05 92 1010.0
20260506140311 62 22 0.0 0.0 0.01 0.05 0.05 92 1010.0
20260506140217 62 49 0.0 0.0 0.01 0.05 0.05 92 1010.1
20260506140123 61 40 0.0 0.0 0.01 0.05 0.05 92 1010.1
20260506140035 61 40 0.0 0.0 0.01 0.05 0.05 92 1009.5
20260506140008 61 40 0.0 0.0 0.01 0.05 0.05 92 1010.1
20260506135922 61 34 0.0 0.0 0.01 0.05 0.05 92 1010.1
20260506135812 61 34 0.0 0.0 0.01 0.05 0.05 92 1010.1
20260506135718 61 34 0.0 0.0 0.01 0.05 0.05 92 1010.1
20260506135623 61 27 0.0 0.0 0.01 0.05 0.05 92 1010.2
20260506135510 61 88 0.0 0.0 0.01 0.05 0.05 93 1010.2
20260506135424 61 68 0.0 0.0 0.01 0.05 0.05 93 1010.2
20260506135329 61 53 0.0 0.0 0.02 0.05 0.05 93 1010.3
20260506135219 61 19 0.0 0.0 0.02 0.05 0.05 93 1010.3
20260506135125 61 19 0.0 0.0 0.02 0.05 0.05 93 1010.3
20260506135030 61 19 0.0 0.0 0.02 0.05 0.05 93 1010.3
20260506134922 61 19 0.0 0.0 0.02 0.05 0.05 93 1010.3
20260506134849 61 19 0.0 0.0 0.02 0.05 0.05 93 1010.3
20260506134713 61 19 0.0 0.0 0.02 0.05 0.05 93 1010.3
20260506134630 61 19 0.0 0.0 0.02 0.05 0.05 93 1010.3
20260506134516 61 44 0.0 0.0 0.02 0.05 0.05 93 1010.2
20260506134506 61 44 0.0 0.0 0.02 0.05 0.05 93 1009.6
20260506134421 61 67 0.0 0.0 0.02 0.05 0.05 93 1010.2
20260506134327 61 55 0.0 0.0 0.02 0.05 0.05 93 1010.3
20260506134213 61 74 0.0 0.0 0.02 0.05 0.05 93 1010.5
20260506134146 61 74 0.0 0.0 0.02 0.05 0.05 93 1010.5
20260506134015 61 74 0.0 0.0 0.02 0.05 0.05 93 1010.5
20260506133921 61 74 0.0 0.0 0.02 0.05 0.05 93 1010.5
20260506133855 61 74 0.0 0.0 0.02 0.05 0.05 93 1010.6
20260506133716 61 74 0.0 0.0 0.02 0.05 0.05 93 1010.5
20260506133642 61 38 0.0 0.0 0.02 0.05 0.05 93 1010.5
20260506133534 61 38 0.0 0.0 0.02 0.05 0.05 93 1010.5
20260506133419 61 38 0.0 0.0 0.02 0.05 0.05 93 1010.5
20260506133309 61 38 0.0 0.0 0.02 0.05 0.05 93 1010.5
20260506133215 61 38 0.0 0.0 0.02 0.05 0.05 93 1010.4
20260506133121 61 38 0.0 0.0 0.02 0.05 0.05 93 1010.4
20260506133034 61 38 0.0 0.0 0.02 0.05 0.05 93 1010.4
20260506133017 61 38 0.0 0.0 0.02 0.05 0.05 93 1009.8
20260506132919 61 38 0.0 0.0 0.02 0.05 0.05 93 1010.4
20260506132809 61 38 0.0 0.0 0.03 0.05 0.05 93 1010.2
20260506132715 61 38 0.0 0.0 0.03 0.05 0.05 93 1010.2
20260506132621 61 38 0.0 0.0 0.03 0.05 0.05 93 1010.2
20260506132535 61 38 0.0 0.0 0.03 0.05 0.05 93 1010.3
20260506132413 61 38 0.0 0.0 0.03 0.05 0.05 93 1010.2
20260506132326 61 38 0.0 0.0 0.03 0.05 0.05 93 1010.2
20260506132236 61 38 0.0 0.0 0.03 0.05 0.05 93 1010.2
20260506132121 61 38 0.0 0.0 0.03 0.05 0.05 93 1010.2
20260506132035 61 38 0.0 0.0 0.04 0.05 0.05 93 1010.2
20260506131920 61 38 0.0 0.0 0.04 0.05 0.05 93 1010.2
20260506131826 61 38 0.0 0.0 0.04 0.05 0.05 93 1010.3
20260506131712 61 38 0.0 0.0 0.04 0.05 0.05 93 1010.2
20260506131629 61 38 0.0 0.0 0.04 0.05 0.05 93 1010.2
20260506131535 61 38 0.0 0.0 0.04 0.05 0.05 93 1010.2
20260506131510 61 38 0.0 0.0 0.04 0.05 0.05 93 1009.6
20260506131421 61 38 0.0 0.0 0.04 0.05 0.05 93 1010.2
20260506131327 61 38 0.0 0.0 0.04 0.05 0.05 93 1010.3
20260506131213 61 38 0.0 0.0 0.04 0.05 0.05 93 1010.3
20260506131123 61 38 0.0 0.0 0.04 0.05 0.05 93 1010.3
20260506131009 61 38 0.0 0.0 0.04 0.05 0.05 93 1010.2
20260506130922 61 38 0.0 0.0 0.04 0.05 0.05 93 1010.2
20260506130809 61 38 0.0 0.0 0.04 0.05 0.05 93 1010.2
20260506130714 61 38 0.0 0.0 0.04 0.05 0.05 93 1010.1
20260506130620 61 38 0.0 0.0 0.04 0.05 0.05 93 1010.1
20260506130509 61 38 0.0 0.0 0.03 0.04 0.04 93 1010.1
20260506130416 61 38 0.0 0.0 0.03 0.04 0.04 93 1010.0
20260506130349 61 38 0.0 0.0 0.03 0.04 0.04 93 1010.0
20260506130213 61 38 0.0 0.0 0.03 0.04 0.04 93 1010.0
20260506130147 61 38 0.0 0.0 0.03 0.04 0.04 93 1010.0
20260506130011 61 38 0.0 0.0 0.03 0.04 0.04 93 1010.1
20260506130003 60 38 0.0 0.0 0.03 0.04 0.04 93 1009.6
20260506125922 61 38 0.0 0.0 0.03 0.04 0.04 93 1010.1
20260506125854 61 38 0.0 0.0 0.03 0.04 0.04 93 1010.2
20260506125721 61 38 0.0 0.0 0.03 0.04 0.04 93 1010.1
20260506125625 61 38 0.0 0.0 0.03 0.04 0.04 93 1010.1
20260506125511 61 38 0.0 0.0 0.04 0.04 0.04 93 1010.2
20260506125417 61 38 0.0 0.0 0.03 0.03 0.03 93 1010.2
20260506125327 61 38 0.0 0.0 0.03 0.03 0.03 93 1010.2
20260506125213 61 38 0.0 0.0 0.03 0.03 0.03 93 1010.3
20260506125127 61 38 0.0 0.0 0.03 0.03 0.03 93 1010.3
20260506125012 61 38 0.0 0.0 0.03 0.03 0.03 93 1010.3
20260506124918 61 38 0.0 0.0 0.03 0.03 0.03 93 1010.3
20260506124828 61 38 0.0 0.0 0.03 0.03 0.03 93 1010.3
20260506124714 61 38 0.0 0.0 0.03 0.03 0.03 93 1010.3
20260506124620 61 38 0.0 0.0 0.03 0.03 0.03 93 1010.3
20260506124533 61 38 0.0 0.0 0.03 0.03 0.03 93 1010.3
20260506124516 60 38 0.0 0.0 0.03 0.03 0.03 93 1009.6
20260506124418 61 38 0.0 0.0 0.03 0.03 0.03 93 1010.2
20260506124324 61 38 0.0 0.0 0.03 0.03 0.03 93 1010.1
20260506124214 61 38 0.0 0.0 0.03 0.03 0.03 93 1010.2
20260506124120 61 38 0.0 0.0 0.03 0.03 0.03 93 1010.2
20260506124026 61 38 0.0 0.0 0.03 0.03 0.03 93 1010.1
20260506123912 61 38 0.0 0.0 0.03 0.03 0.03 93 1010.1
20260506123825 61 38 0.0 0.0 0.03 0.03 0.03 93 1010.1
20260506123735 61 38 0.0 0.0 0.03 0.03 0.03 93 1010.1
20260506123620 61 38 0.0 0.0 0.03 0.03 0.03 93 1010.1
20260506123533 61 38 0.0 0.0 0.03 0.03 0.03 93 1010.1
20260506123419 61 38 0.0 0.0 0.03 0.03 0.03 93 1010.1
20260506123325 61 38 0.0 0.0 0.03 0.03 0.03 93 1010.1
20260506123211 60 38 0.0 0.0 0.03 0.03 0.03 93 1010.2
20260506123121 60 38 0.0 0.0 0.03 0.03 0.03 93 1010.2
20260506123044 60 38 0.0 0.0 0.03 0.03 0.03 93 1009.7
20260506123027 60 38 0.0 0.0 0.03 0.03 0.03 93 1010.2
20260506122913 60 38 0.0 0.0 0.02 0.02 0.02 93 1010.3
20260506122826 60 38 0.0 0.0 0.02 0.02 0.02 93 1010.3
20260506122733 60 38 0.0 0.0 0.02 0.02 0.02 93 1010.1
20260506122645 60 38 0.0 0.0 0.02 0.02 0.02 93 1010.1
20260506122514 60 38 0.0 0.0 0.02 0.02 0.02 93 1010.1
20260506122440 60 38 0.0 0.0 0.02 0.02 0.02 93 1010.1
20260506122332 60 38 0.0 0.0 0.02 0.02 0.02 93 1010.1
20260506122211 60 38 0.0 0.0 0.02 0.02 0.02 92 1010.2
20260506122124 60 38 0.0 0.0 0.02 0.02 0.02 92 1010.2
20260506122010 60 38 0.0 0.0 0.01 0.01 0.01 92 1010.3
20260506121940 60 38 0.0 0.0 0.01 0.01 0.01 92 1010.3
20260506121832 60 38 0.0 0.0 0.01 0.01 0.01 92 1010.3
20260506121718 60 38 0.0 0.0 0.01 0.01 0.01 92 1010.3
20260506121644 60 38 0.0 0.0 0.01 0.01 0.01 92 1010.4
20260506121535 60 38 0.0 0.0 0.01 0.01 0.01 92 1010.4
20260506121523 60 38 0.0 0.0 0.01 0.01 0.01 92 1009.8
20260506121422 60 38 0.0 0.0 0.01 0.01 0.01 92 1010.3
20260506121311 60 38 0.0 0.0 0.01 0.01 0.01 92 1010.2
20260506121217 60 38 0.0 0.0 0.01 0.01 0.01 92 1010.2
20260506121123 60 38 0.0 0.0 0.01 0.01 0.01 92 1010.2
20260506121009 60 38 0.0 0.0 0.01 0.01 0.01 92 1010.3
20260506120916 60 38 0.0 0.0 0.01 0.01 0.01 92 1010.3
20260506120828 60 38 0.0 0.0 0.01 0.01 0.01 92 1010.3
20260506120718 60 38 0.0 0.0 0.01 0.01 0.01 92 1010.3
20260506120646 60 38 0.0 0.0 0.01 0.01 0.01 92 1010.2
20260506120510 60 38 0.0 0.0 0.01 0.01 0.01 92 1010.1
20260506120424 60 38 0.0 0.0 0.01 0.01 0.01 92 1010.1
20260506120329 60 38 0.0 0.0 0.01 0.01 0.01 92 1010.0
20260506120236 60 38 0.0 0.0 0.01 0.01 0.01 92 1010.0
20260506120137 60 38 0.0 0.0 0.01 0.01 0.01 92 1009.5
20260506120124 60 38 0.0 0.0 0.01 0.01 0.01 92 1010.0
20260506120038 60 38 0.0 0.0 0.01 0.01 0.01 92 1010.1
20260506115922 60 38 0.0 0.0 0.01 0.01 0.01 92 1010.1
20260506115828 60 38 0.0 0.0 0.01 0.01 0.01 92 1010.1
20260506115741 60 38 0.0 0.0 0.01 0.01 0.01 92 1010.1
20260506115626 60 38 0.0 0.0 0.01 0.01 0.01 92 1010.2
20260506115516 60 38 0.0 0.0 0.00 0.00 0.00 92 1010.1
20260506115422 60 38 0.0 0.0 0.00 0.00 0.00 92 1010.1
20260506115309 60 38 0.0 0.0 0.00 0.00 0.00 92 1010.1
20260506115242 60 38 0.0 0.0 0.00 0.00 0.00 92 1010.1
20260506115127 60 38 0.0 0.0 0.00 0.00 0.00 91 1010.1
20260506115013 60 38 0.0 0.0 0.00 0.00 0.00 92 1010.0
20260506114923 60 38 0.0 0.0 0.00 0.00 0.00 92 1010.0
20260506114810 60 38 0.0 0.0 0.00 0.00 0.00 92 1010.1
20260506114722 60 38 0.0 0.0 0.00 0.00 0.00 92 1010.1
20260506114648 60 38 0.0 0.0 0.00 0.00 0.00 92 1010.0
20260506114540 60 38 0.0 0.0 0.00 0.00 0.00 92 1010.1
20260506114518 60 38 0.0 0.0 0.00 0.00 0.00 92 1009.5
20260506114445 60 38 0.0 0.0 0.00 0.00 0.00 91 1010.1
20260506114330 60 38 0.0 0.0 0.00 0.00 0.00 91 1010.0
20260506114246 60 38 0.0 0.0 0.00 0.00 0.00 91 1010.0
20260506114111 60 38 0.0 0.0 0.00 0.00 0.00 91 1009.9
20260506114017 60 38 0.0 0.0 0.00 0.00 0.00 91 1009.9
20260506113930 60 38 0.0 0.0 0.00 0.00 0.00 91 1009.8
20260506113835 60 38 0.0 0.0 0.00 0.00 0.00 91 1009.7
20260506113727 60 38 0.0 0.0 0.00 0.00 0.00 91 1009.7
20260506113633 60 38 0.0 0.0 0.00 0.00 0.00 92 1009.8
20260506113549 60 38 0.0 0.0 0.00 0.00 0.00 91 1009.8
20260506113434 60 38 0.0 0.0 0.00 0.00 0.00 91 1009.8
20260506113320 60 141 0.0 0.0 0.00 0.00 0.00 91 1009.8
20260506113233 60 141 0.0 0.0 0.00 0.00 0.00 91 1009.9
20260506113138 60 141 0.0 0.0 0.00 0.00 0.00 91 1009.9
20260506113031 60 141 0.0 0.0 0.00 0.00 0.00 91 1009.8
20260506113002 59 141 0.0 0.0 0.00 0.00 0.00 91 1009.2
20260506112935 60 141 0.0 0.0 0.00 0.00 0.00 91 1009.8
20260506112847 60 141 0.0 0.0 0.00 0.00 0.00 91 1009.8
20260506112716 60 141 0.0 0.0 0.00 0.00 0.00 91 1009.8
20260506112622 60 141 0.0 0.0 0.00 0.00 0.00 91 1009.8
20260506112527 60 141 0.0 0.0 0.00 0.00 0.00 91 1009.9
20260506112441 60 141 0.0 0.0 0.00 0.00 0.00 91 1009.9
20260506112326 60 141 0.0 0.0 0.00 0.00 0.00 91 1009.8
20260506112212 60 141 0.0 0.0 0.00 0.00 0.00 91 1009.8
20260506112149 60 333 0.0 0.0 0.00 0.00 0.00 91 1009.8
20260506112013 60 333 0.0 0.0 0.00 0.00 0.00 91 1009.9
20260506111920 60 333 0.0 0.0 0.00 0.00 0.00 91 1009.9
20260506111826 60 333 0.0 0.0 0.00 0.00 0.00 91 1010.0
20260506111711 60 333 0.0 0.0 0.00 0.00 0.00 91 1009.9
20260506111617 60 337 0.0 0.0 0.00 0.00 0.00 91 1009.9
20260506111534 60 350 0.0 0.0 0.00 0.00 0.00 91 1009.8
20260506111515 59 360 0.0 0.0 0.00 0.00 0.00 91 1009.2
20260506111441 60 26 0.0 0.0 0.00 0.00 0.00 91 1009.7
20260506111326 60 320 0.0 0.0 0.00 0.00 0.00 91 1009.8
20260506111212 60 195 0.0 0.0 0.00 0.00 0.00 91 1009.8
20260506111124 60 195 0.0 0.0 0.00 0.00 0.00 91 1009.8
20260506111030 60 195 0.0 0.0 0.00 0.00 0.00 91 1009.8
20260506110919 60 195 0.0 0.0 0.00 0.00 0.00 91 1009.8
20260506110825 60 195 0.0 0.0 0.00 0.00 0.00 91 1009.8
20260506110711 60 195 0.0 0.0 0.00 0.00 0.00 90 1009.9
20260506110624 60 195 0.0 0.0 0.00 0.00 0.00 90 1009.9
20260506110510 60 195 0.0 0.0 0.00 0.00 0.00 91 1010.0
20260506110420 60 195 0.0 0.0 0.00 0.00 0.00 90 1010.0
20260506110326 60 195 0.0 0.0 0.00 0.00 0.00 90 1010.0
20260506110239 60 195 0.0 0.0 0.00 0.00 0.00 90 1010.1
20260506110124 60 195 0.0 0.0 0.00 0.00 0.00 90 1010.0
20260506110058 59 195 0.0 0.0 0.00 0.00 0.00 90 1009.4
20260506110010 60 195 0.0 0.0 0.00 0.00 0.00 90 1009.8
20260506105916 60 195 0.0 0.0 0.00 0.00 0.00 90 1009.8
20260506105826 60 195 0.0 0.0 0.00 0.00 0.00 90 1009.8
20260506105712 60 195 0.0 0.0 0.00 0.00 0.00 90 1010.0
20260506105625 60 195 0.0 0.0 0.00 0.00 0.00 90 1010.0
20260506105511 60 195 0.0 0.0 0.00 0.00 0.00 90 1010.0
20260506105417 60 195 0.0 0.0 0.00 0.00 0.00 90 1010.0
20260506105350 60 195 0.0 0.0 0.00 0.00 0.00 90 1009.9
20260506105120 60 195 0.0 0.0 0.00 0.00 0.00 90 1009.9
20260506105026 60 195 0.0 0.0 0.00 0.00 0.00 90 1009.9
20260506104912 60 195 0.0 0.0 0.00 0.00 0.00 90 1009.8
20260506104825 60 195 0.0 0.0 0.00 0.00 0.00 90 1009.8
20260506104711 60 195 0.0 0.0 0.00 0.00 0.00 90 1009.7
20260506104622 60 195 0.0 0.0 0.00 0.00 0.00 90 1009.7
20260506104556 60 195 0.0 0.0 0.00 0.00 0.00 90 1009.2
20260506104528 60 195 0.0 0.0 0.00 0.00 0.00 90 1009.7
20260506104414 60 195 0.0 0.0 0.00 0.00 0.00 89 1009.7
20260506104320 60 195 0.0 0.0 0.00 0.00 0.00 90 1009.7
20260506104233 60 195 0.0 0.0 0.00 0.00 0.00 90 1009.8
20260506104139 60 195 0.0 0.0 0.00 0.00 0.00 89 1009.7
20260506104028 60 195 0.0 0.0 0.00 0.00 0.00 89 1009.7
20260506103913 60 195 0.0 0.0 0.00 0.00 0.00 89 1009.7
20260506103826 60 195 0.0 0.0 0.00 0.00 0.00 89 1009.7
20260506103733 60 195 0.0 0.0 0.00 0.00 0.00 89 1009.8
20260506103618 60 195 0.0 0.0 0.00 0.00 0.00 89 1009.8
20260506103531 60 195 0.0 0.0 0.00 0.00 0.00 89 1009.8
20260506103420 60 195 0.0 0.0 0.00 0.00 0.00 88 1009.8
20260506103327 60 195 0.0 0.0 0.00 0.00 0.00 88 1009.8
20260506103212 60 195 0.0 0.0 0.00 0.00 0.00 88 1009.8
20260506103118 60 195 0.0 0.0 0.00 0.00 0.00 88 1009.8
20260506103042 59 195 0.0 0.0 0.00 0.00 0.00 88 1009.3
20260506103025 60 195 0.0 0.0 0.00 0.00 0.00 88 1009.8
20260506102915 59 195 0.0 0.0 0.00 0.00 0.00 88 1009.8
20260506102848 60 195 0.0 0.0 0.00 0.00 0.00 88 1009.8
20260506102712 60 195 0.0 0.0 0.00 0.00 0.00 88 1009.8
20260506102614 60 195 0.0 0.0 0.00 0.00 0.00 88 1009.8
20260506102529 60 195 0.0 0.0 0.00 0.00 0.00 88 1009.8
20260506102430 60 195 0.0 0.0 0.00 0.00 0.00 88 1009.8
20260506102336 60 195 0.0 0.0 0.00 0.00 0.00 88 1009.8
20260506102221 60 195 0.0 0.0 0.00 0.00 0.00 88 1009.8
20260506102134 60 195 0.0 0.0 0.00 0.00 0.00 88 1009.8
20260506102021 59 195 0.0 0.0 0.00 0.00 0.00 88 1009.8
20260506101926 60 195 0.0 0.0 0.00 0.00 0.00 88 1009.8
20260506101812 60 195 0.0 0.0 0.00 0.00 0.00 88 1009.8
20260506101722 59 195 0.0 0.0 0.00 0.00 0.00 88 1009.8
20260506101635 59 195 0.0 0.0 0.00 0.00 0.00 88 1009.7
20260506101626 59 195 0.0 0.0 0.00 0.00 0.00 88 1009.2
20260506101541 59 195 0.0 0.0 0.00 0.00 0.00 88 1009.8
20260506101426 59 195 0.0 0.0 0.00 0.00 0.00 88 1009.7
20260506101312 59 195 0.0 0.0 0.00 0.00 0.00 88 1009.7
20260506101218 59 195 0.0 0.0 0.00 0.00 0.00 88 1009.7
20260506101135 59 195 0.0 0.0 0.00 0.00 0.00 88 1009.6
20260506101021 59 195 0.0 0.0 0.00 0.00 0.00 88 1009.7
20260506100947 59 195 0.0 0.0 0.00 0.00 0.00 88 1009.7
20260506100812 59 65 0.0 0.0 0.00 0.00 0.00 88 1009.8
20260506100745 59 65 0.0 0.0 0.00 0.00 0.00 88 1009.8
20260506100610 59 65 0.0 0.0 0.00 0.00 0.00 89 1009.8
20260506100520 59 65 0.0 0.0 0.00 0.00 0.00 89 1009.8
20260506100453 59 65 0.0 0.0 0.00 0.00 0.00 88 1009.8
20260506100318 59 65 0.0 0.0 0.00 0.00 0.00 88 1009.7
20260506100224 59 65 0.0 0.0 0.00 0.00 0.00 89 1009.8
20260506100130 59 65 0.0 0.0 0.00 0.00 0.00 89 1009.7
20260506100022 59 65 0.0 0.0 0.00 0.00 0.00 89 1009.7
20260506100016 58 65 0.0 0.0 0.00 0.00 0.00 89 1009.2
20260506095912 59 65 0.0 0.0 0.00 0.00 0.00 88 1009.8
20260506095713 59 65 0.0 0.0 0.00 0.00 0.00 89 1009.8
20260506095627 59 65 0.0 0.0 0.00 0.00 0.00 89 1009.8
20260506095532 59 65 0.0 0.0 0.00 0.00 0.00 89 1009.8
20260506095438 59 65 0.0 0.0 0.00 0.00 0.00 89 1009.8
20260506095350 59 65 0.0 0.0 0.00 0.00 0.00 89 1009.7
20260506095239 59 65 0.0 0.0 0.00 0.00 0.00 89 1009.7
20260506095124 59 65 0.0 0.0 0.00 0.00 0.00 89 1009.7
20260506095037 59 65 0.0 0.0 0.00 0.00 0.00 89 1009.7
20260506094922 58 65 0.0 0.0 0.00 0.00 0.00 89 1009.7
20260506094855 58 65 0.0 0.0 0.00 0.00 0.00 89 1009.7
20260506094720 58 65 0.0 0.0 0.00 0.00 0.00 89 1009.7
20260506094609 58 65 0.0 0.0 0.00 0.00 0.00 89 1009.7
20260506094605 58 65 0.0 0.0 0.00 0.00 0.00 89 1009.2
20260506094516 58 65 0.0 0.0 0.00 0.00 0.00 89 1009.7
20260506094421 58 65 0.0 0.0 0.00 0.00 0.00 90 1009.7
20260506094328 58 65 0.0 0.0 0.00 0.00 0.00 89 1009.7
20260506094214 58 65 0.0 0.0 0.00 0.00 0.00 89 1009.7
20260506094127 58 65 0.0 0.0 0.00 0.00 0.00 89 1009.7
20260506094016 58 65 0.0 0.0 0.00 0.00 0.00 89 1009.7
20260506093923 58 65 0.0 0.0 0.00 0.00 0.00 89 1009.7
20260506093829 58 65 0.0 0.0 0.00 0.00 0.00 90 1009.7
20260506093715 58 65 0.0 0.0 0.00 0.00 0.00 90 1009.7
20260506093621 58 65 0.0 0.0 0.00 0.00 0.00 90 1009.7
20260506093510 58 65 0.0 0.0 0.00 0.00 0.00 90 1009.8
20260506093443 58 65 0.0 0.0 0.00 0.00 0.00 90 1009.8
20260506093328 58 65 0.0 0.0 0.00 0.00 0.00 90 1009.8
20260506093242 57 65 0.0 0.0 0.00 0.00 0.00 90 1009.8
20260506093126 57 65 0.0 0.0 0.00 0.00 0.00 90 1009.8
20260506093053 57 65 0.0 0.0 0.00 0.00 0.00 90 1009.3
20260506093012 57 65 0.0 0.0 0.00 0.00 0.00 90 1009.8
20260506092922 57 65 0.0 0.0 0.00 0.00 0.00 90 1009.8
20260506092835 57 57 0.0 0.0 0.00 0.00 0.00 90 1009.8
20260506092714 57 129 0.0 0.0 0.00 0.00 0.00 90 1009.8
20260506092647 57 129 0.0 0.0 0.00 0.00 0.00 91 1009.8
20260506092512 57 129 0.0 0.0 0.00 0.00 0.00 91 1009.8
20260506092418 57 129 0.0 0.0 0.00 0.00 0.00 91 1009.8
20260506092335 57 129 0.0 0.0 0.00 0.00 0.00 91 1009.8
20260506092221 56 129 0.0 0.0 0.00 0.00 0.00 91 1009.8
20260506092127 56 129 0.0 0.0 0.00 0.00 0.00 91 1009.8
20260506092013 56 129 0.0 0.0 0.00 0.00 0.00 91 1009.8
20260506091919 56 129 0.0 0.0 0.00 0.00 0.00 91 1009.8
20260506091809 56 129 0.0 0.0 0.00 0.00 0.00 91 1009.7
20260506091715 56 130 0.0 0.0 0.00 0.00 0.00 90 1009.8
20260506091628 56 167 0.0 0.0 0.00 0.00 0.00 90 1009.8
20260506091608 55 167 0.0 0.0 0.00 0.00 0.00 90 1009.3
20260506091514 55 167 0.0 0.0 0.00 0.00 0.00 90 1009.7
20260506091420 55 167 0.0 0.0 0.00 0.00 0.00 90 1009.7
20260506091326 55 167 0.0 0.0 0.00 0.00 0.00 90 1009.7
20260506091216 55 167 0.0 0.0 0.00 0.00 0.00 90 1009.7
20260506091129 55 167 0.0 0.0 0.00 0.00 0.00 90 1009.7
20260506091035 55 167 0.0 0.0 0.00 0.00 0.00 90 1009.7
20260506090921 55 167 0.0 0.0 0.00 0.00 0.00 90 1009.8
20260506090827 55 167 0.0 0.0 0.00 0.00 0.00 90 1009.8
20260506090717 55 167 0.0 0.0 0.00 0.00 0.00 90 1009.8
20260506090623 55 167 0.0 0.0 0.00 0.00 0.00 90 1009.9
20260506090509 55 167 0.0 0.0 0.00 0.00 0.00 90 1009.8
20260506090422 55 167 0.0 0.0 0.00 0.00 0.00 90 1009.8
20260506090328 55 167 0.0 0.0 0.00 0.00 0.00 90 1009.8
20260506090214 54 167 0.0 0.0 0.00 0.00 0.00 90 1009.9
20260506090124 54 167 0.0 0.0 0.00 0.00 0.00 90 1009.9
20260506090043 54 167 0.0 0.0 0.00 0.00 0.00 90 1009.5
20260506090010 54 167 0.0 0.0 0.00 0.00 0.00 90 1009.9
20260506085917 54 167 0.0 0.0 0.00 0.00 0.00 90 1009.9
20260506085830 54 167 0.0 0.0 0.00 0.00 0.00 90 1010.0
20260506085716 54 167 0.0 0.0 0.00 0.00 0.00 90 1009.9
20260506085642 54 167 0.0 0.0 0.00 0.00 0.00 90 1009.9
20260506085511 54 167 0.0 0.0 0.00 0.00 0.00 90 1010.0
20260506085424 54 167 0.0 0.0 0.00 0.00 0.00 90 1010.0
20260506085330 54 167 0.0 0.0 0.00 0.00 0.00 90 1010.0
20260506085216 54 167 0.0 0.0 0.00 0.00 0.00 90 1010.0
20260506085142 54 167 0.0 0.0 0.00 0.00 0.00 90 1010.0
20260506085011 54 167 0.0 0.0 0.00 0.00 0.00 90 1010.0
20260506084923 54 167 0.0 0.0 0.00 0.00 0.00 90 1010.0
20260506084809 54 167 0.0 0.0 0.00 0.00 0.00 90 1009.9
20260506084736 54 167 0.0 0.0 0.00 0.00 0.00 90 1009.9
20260506084627 54 167 0.0 0.0 0.00 0.00 0.00 90 1009.9
20260506084533 54 167 0.0 0.0 0.00 0.00 0.00 90 1009.9
20260506084508 53 167 0.0 0.0 0.00 0.00 0.00 90 1009.4
20260506084424 54 167 0.0 0.0 0.00 0.00 0.00 90 1009.9
20260506084310 54 167 0.0 0.0 0.00 0.00 0.00 90 1009.9
20260506084216 54 167 0.0 0.0 0.00 0.00 0.00 90 1010.0
20260506084121 54 167 0.0 0.0 0.00 0.00 0.00 90 1010.0
20260506084034 54 167 0.0 0.0 0.00 0.00 0.00 90 1010.0
20260506083920 54 167 0.0 0.0 0.00 0.00 0.00 90 1010.0
20260506083811 53 167 0.0 0.0 0.00 0.00 0.00 90 1009.9
20260506083716 53 167 0.0 0.0 0.00 0.00 0.00 90 1009.9
20260506083649 53 167 0.0 0.0 0.00 0.00 0.00 90 1010.0
20260506083534 53 167 0.0 0.0 0.00 0.00 0.00 90 1010.0
20260506083420 53 167 0.0 0.0 0.00 0.00 0.00 90 1010.0
20260506083310 53 167 0.0 0.0 0.00 0.00 0.00 90 1010.0
20260506083216 53 167 0.0 0.0 0.00 0.00 0.00 90 1010.0
20260506083122 53 167 0.0 0.0 0.00 0.00 0.00 90 1010.0
20260506083035 53 167 0.0 0.0 0.00 0.00 0.00 90 1010.0
20260506083029 53 167 0.0 0.0 0.00 0.00 0.00 90 1009.6
20260506082922 53 167 0.0 0.0 0.00 0.00 0.00 90 1010.0
20260506082847 53 167 0.0 0.0 0.00 0.00 0.00 90 1010.0
20260506082716 53 167 0.0 0.0 0.00 0.00 0.00 91 1010.0
20260506082622 53 167 0.0 0.0 0.00 0.00 0.00 91 1010.0
20260506082535 53 167 0.0 0.0 0.00 0.00 0.00 91 1010.1
20260506082420 53 167 0.0 0.0 0.00 0.00 0.00 91 1010.1
20260506082326 53 167 0.0 0.0 0.00 0.00 0.00 91 1010.0
20260506082212 53 167 0.0 0.0 0.00 0.00 0.00 91 1009.9
20260506082129 53 167 0.0 0.0 0.00 0.00 0.00 91 1009.9
20260506082015 53 167 0.0 0.0 0.00 0.00 0.00 91 1009.9
20260506081921 53 167 0.0 0.0 0.00 0.00 0.00 91 1009.9
20260506081827 53 167 0.0 0.0 0.00 0.00 0.00 91 1010.0
20260506081713 53 167 0.0 0.0 0.00 0.00 0.00 91 1010.0
20260506081619 53 167 0.0 0.0 0.00 0.00 0.00 91 1010.0
20260506081524 52 167 0.0 0.0 0.00 0.00 0.00 91 1009.6
20260506081509 53 167 0.0 0.0 0.00 0.00 0.00 91 1010.1
20260506081442 53 167 0.0 0.0 0.00 0.00 0.00 91 1010.1
20260506081354 53 167 0.0 0.0 0.00 0.00 0.00 91 1010.0
20260506081219 53 167 0.0 0.0 0.00 0.00 0.00 91 1010.0
20260506081125 53 167 0.0 0.0 0.00 0.00 0.00 91 1010.0
20260506081010 53 167 0.0 0.0 0.00 0.00 0.00 91 1010.1
20260506080921 53 167 0.0 0.0 0.00 0.00 0.00 91 1010.1
20260506080827 53 167 0.0 0.0 0.00 0.00 0.00 91 1010.0
20260506080713 53 167 0.0 0.0 0.00 0.00 0.00 91 1010.0
20260506080646 53 167 0.0 0.0 0.00 0.00 0.00 91 1010.0
20260506080512 52 167 0.0 0.0 0.00 0.00 0.00 91 1010.0
20260506080417 52 167 0.0 0.0 0.00 0.00 0.00 91 1010.0
20260506080335 52 167 0.0 0.0 0.00 0.00 0.00 91 1010.1
20260506080221 52 167 0.0 0.0 0.00 0.00 0.00 91 1010.1
20260506080126 52 167 0.0 0.0 0.00 0.00 0.00 91 1010.1
20260506073514 52 167 0.0 0.0 0.00 0.00 0.00 91 1010.3
20260506073427 51 167 0.0 0.0 0.00 0.00 0.00 91 1010.3
20260506073333 51 167 0.0 0.0 0.00 0.00 0.00 91 1010.2
20260506073219 51 167 0.0 0.0 0.00 0.00 0.00 91 1010.3
20260506073125 51 167 0.0 0.0 0.00 0.00 0.00 91 1010.2
20260506073050 51 167 0.0 0.0 0.00 0.00 0.00 91 1009.8
20260506073011 51 167 0.0 0.0 0.00 0.00 0.00 91 1010.3
20260506072921 51 167 0.0 0.0 0.00 0.00 0.00 91 1010.3
20260506072834 51 167 0.0 0.0 0.00 0.00 0.00 91 1010.2
20260506072720 51 167 0.0 0.0 0.00 0.00 0.00 91 1010.2
20260506072626 51 167 0.0 0.0 0.00 0.00 0.00 91 1010.2
20260506072532 51 167 0.0 0.0 0.00 0.00 0.00 91 1010.1
20260506072417 51 167 0.0 0.0 0.00 0.00 0.00 91 1010.1
20260506072334 51 167 0.0 0.0 0.00 0.00 0.00 91 1010.1
20260506072219 51 167 0.0 0.0 0.00 0.00 0.00 91 1010.1
20260506072152 51 167 0.0 0.0 0.00 0.00 0.00 91 1010.1
20260506072017 51 167 0.0 0.0 0.00 0.00 0.00 91 1010.2
20260506071923 51 167 0.0 0.0 0.00 0.00 0.00 91 1010.1
20260506071856 51 167 0.0 0.0 0.00 0.00 0.00 91 1010.1
20260506071725 51 167 0.0 0.0 0.00 0.00 0.00 91 1010.1
20260506071611 51 167 0.0 0.0 0.00 0.00 0.00 91 1010.2
20260506071601 51 167 0.0 0.0 0.00 0.00 0.00 91 1009.7
20260506071517 51 167 0.0 0.0 0.00 0.00 0.00 91 1010.2
20260506071423 51 167 0.0 0.0 0.00 0.00 0.00 91 1010.2
20260506071328 51 167 0.0 0.0 0.00 0.00 0.00 91 1010.2
20260506071215 51 167 0.0 0.0 0.00 0.00 0.00 91 1010.2
20260506071131 51 167 0.0 0.0 0.00 0.00 0.00 91 1010.2
20260506071017 51 167 0.0 0.0 0.00 0.00 0.00 91 1010.2
20260506070923 51 167 0.0 0.0 0.00 0.00 0.00 91 1010.2
20260506070856 51 167 0.0 0.0 0.00 0.00 0.00 91 1010.2
20260506070722 51 167 0.0 0.0 0.00 0.00 0.00 91 1010.2
20260506070611 51 167 0.0 0.0 0.00 0.00 0.00 91 1010.2
20260506070517 51 167 0.0 0.0 0.00 0.00 0.00 91 1010.2
20260506070423 51 167 0.0 0.0 0.00 0.00 0.00 91 1010.2
20260506070309 51 167 0.0 0.0 0.00 0.00 0.00 91 1010.2
20260506070216 51 167 0.0 0.0 0.00 0.00 0.00 91 1010.3
20260506070128 51 167 0.0 0.0 0.00 0.00 0.00 91 1010.3
20260506062514 51 167 0.0 0.0 0.00 0.00 0.00 90 1010.8
20260506062427 51 167 0.0 0.0 0.00 0.00 0.00 90 1010.8
20260506062333 51 167 0.0 0.0 0.00 0.00 0.00 90 1010.9
20260506062218 51 167 0.0 0.0 0.00 0.00 0.00 90 1010.9
20260506062151 51 167 0.0 0.0 0.00 0.00 0.00 90 1010.8
20260506062016 51 167 0.0 0.0 0.00 0.00 0.00 90 1010.8
20260506061926 51 167 0.0 0.0 0.00 0.00 0.00 90 1010.8
20260506061812 51 167 0.0 0.0 0.00 0.00 0.00 90 1010.8
20260506061718 51 167 0.0 0.0 0.00 0.00 0.00 90 1010.8
20260506061631 51 167 0.0 0.0 0.00 0.00 0.00 90 1010.8
20260506061555 50 167 0.0 0.0 0.00 0.00 0.00 90 1010.4
20260506061536 51 167 0.0 0.0 0.00 0.00 0.00 90 1010.8
20260506061428 51 167 0.0 0.0 0.00 0.00 0.00 90 1010.8
20260506061318 51 167 0.0 0.0 0.00 0.00 0.00 90 1010.8
20260506061224 51 167 0.0 0.0 0.00 0.00 0.00 90 1010.8
20260506061110 51 167 0.0 0.0 0.00 0.00 0.00 90 1010.8
20260506061016 51 167 0.0 0.0 0.00 0.00 0.00 90 1010.9
20260506060922 51 167 0.0 0.0 0.00 0.00 0.00 90 1010.9
20260506060835 51 167 0.0 0.0 0.00 0.00 0.00 90 1010.8
20260506060745 51 167 0.0 0.0 0.00 0.00 0.00 90 1010.8
20260506060630 51 167 0.0 0.0 0.00 0.00 0.00 90 1010.9
20260506060522 51 167 0.0 0.0 0.00 0.00 0.00 90 1010.9
20260506060428 51 167 0.0 0.0 0.00 0.00 0.00 90 1010.9
20260506060314 51 167 0.0 0.0 0.00 0.00 0.00 90 1010.9
20260506060220 51 167 0.0 0.0 0.00 0.00 0.00 90 1010.9
20260506060110 51 167 0.0 0.0 0.00 0.00 0.00 91 1010.9
20260506051313 52 167 0.0 0.0 0.00 0.00 0.00 89 1011.1
20260506051219 52 167 0.0 0.0 0.00 0.00 0.00 89 1011.1
20260506051132 52 167 0.0 0.0 0.00 0.00 0.00 89 1011.1
20260506051018 52 167 0.0 0.0 0.00 0.00 0.00 89 1011.1
20260506050924 52 167 0.0 0.0 0.00 0.00 0.00 89 1011.1
20260506050815 52 167 0.0 0.0 0.00 0.00 0.00 89 1011.1
20260506050721 52 167 0.0 0.0 0.00 0.00 0.00 89 1011.1
20260506050627 52 167 0.0 0.0 0.00 0.00 0.00 89 1011.1
20260506050513 52 167 0.0 0.0 0.00 0.00 0.00 89 1011.1
20260506050425 52 167 0.0 0.0 0.00 0.00 0.00 88 1011.1
20260506050315 52 167 0.0 0.0 0.00 0.00 0.00 88 1011.1
20260506050221 52 167 0.0 0.0 0.00 0.00 0.00 88 1011.1
20260506050127 52 167 0.0 0.0 0.00 0.00 0.00 88 1011.1
20260506045133 52 167 0.0 0.0 0.00 0.00 0.00 88 1011.0
20260506045013 52 167 0.0 0.0 0.00 0.00 0.00 88 1011.0
20260506044925 52 167 0.0 0.0 0.00 0.00 0.00 88 1011.0
20260506044832 52 167 0.0 0.0 0.00 0.00 0.00 88 1011.0
20260506044717 53 167 0.0 0.0 0.00 0.00 0.00 88 1011.0
20260506044630 53 167 0.0 0.0 0.00 0.00 0.00 88 1010.9
20260506044556 52 167 0.0 0.0 0.00 0.00 0.00 88 1010.5
20260506044540 53 167 0.0 0.0 0.00 0.00 0.00 88 1010.9
20260506044432 53 167 0.0 0.0 0.00 0.00 0.00 88 1011.0
20260506044318 53 167 0.0 0.0 0.00 0.00 0.00 88 1011.0
20260506044224 53 167 0.0 0.0 0.00 0.00 0.00 88 1011.0
20260506044130 53 167 0.0 0.0 0.00 0.00 0.00 88 1011.0
20260506044016 53 167 0.0 0.0 0.00 0.00 0.00 88 1011.0
20260506043933 53 167 0.0 0.0 0.00 0.00 0.00 87 1011.0
20260506043819 53 167 0.0 0.0 0.00 0.00 0.00 88 1011.0
20260506043725 53 167 0.0 0.0 0.00 0.00 0.00 88 1011.0
20260506043631 53 167 0.0 0.0 0.00 0.00 0.00 88 1010.9
20260506043523 53 167 0.0 0.0 0.00 0.00 0.00 87 1010.9
20260506043409 53 167 0.0 0.0 0.00 0.00 0.00 87 1010.9
20260506043319 53 167 0.0 0.0 0.00 0.00 0.00 88 1010.9
20260506043225 53 167 0.0 0.0 0.00 0.00 0.00 88 1010.9
20260506043111 53 167 0.0 0.0 0.00 0.00 0.00 88 1010.9
20260506043029 53 167 0.0 0.0 0.00 0.00 0.00 88 1010.5
20260506043017 53 167 0.0 0.0 0.00 0.00 0.00 88 1010.9
20260506042930 53 167 0.0 0.0 0.00 0.00 0.00 88 1010.9
20260506042815 53 167 0.0 0.0 0.00 0.00 0.00 88 1010.9
20260506042725 53 167 0.0 0.0 0.00 0.00 0.00 87 1010.9
20260506042611 53 167 0.0 0.0 0.00 0.00 0.00 87 1010.9
20260506042524 53 167 0.0 0.0 0.00 0.00 0.00 87 1010.9
20260506042430 53 167 0.0 0.0 0.00 0.00 0.00 88 1011.0
20260506042315 53 167 0.0 0.0 0.00 0.00 0.00 88 1011.0
20260506042221 53 167 0.0 0.0 0.00 0.00 0.00 88 1011.0
20260506042111 53 167 0.0 0.0 0.00 0.00 0.00 88 1011.1
20260506042044 53 167 0.0 0.0 0.00 0.00 0.00 88 1011.1
20260506041956 53 167 0.0 0.0 0.00 0.00 0.00 88 1011.0
20260506041841 53 167 0.0 0.0 0.00 0.00 0.00 88 1011.0
20260506041726 53 167 0.0 0.0 0.00 0.00 0.00 87 1011.1
20260506041612 53 167 0.0 0.0 0.00 0.00 0.00 87 1011.1
20260506041529 53 167 0.0 0.0 0.00 0.00 0.00 87 1011.1
20260506041514 53 167 0.0 0.0 0.00 0.00 0.00 88 1010.6
20260506041415 53 167 0.0 0.0 0.00 0.00 0.00 88 1011.1
20260506041321 53 167 0.0 0.0 0.00 0.00 0.00 87 1011.1
20260506041227 53 167 0.0 0.0 0.00 0.00 0.00 87 1011.1
20260506041112 53 167 0.0 0.0 0.00 0.00 0.00 87 1011.1
20260506041019 53 167 0.0 0.0 0.00 0.00 0.00 87 1011.1
20260506040909 53 167 0.0 0.0 0.00 0.00 0.00 87 1011.1
20260506040822 53 167 0.0 0.0 0.00 0.00 0.00 87 1011.1
20260506040748 53 167 0.0 0.0 0.00 0.00 0.00 87 1011.1
20260506040613 53 167 0.0 0.0 0.00 0.00 0.00 87 1011.1
20260506040525 53 167 0.0 0.0 0.00 0.00 0.00 87 1011.1
20260506040415 53 167 0.0 0.0 0.00 0.00 0.00 87 1011.1
20260506040322 53 167 0.0 0.0 0.00 0.00 0.00 87 1011.1
20260506040256 54 167 0.0 0.0 0.00 0.00 0.00 87 1011.1
20260506040139 54 167 0.0 0.0 0.00 0.00 0.00 87 1011.1
20260506040056 53 167 0.0 0.0 0.00 0.00 0.00 87 1010.6
20260506040024 54 167 0.0 0.0 0.00 0.00 0.00 87 1011.0
20260506035910 54 167 0.0 0.0 0.00 0.00 0.00 87 1011.0
20260506035817 54 167 0.0 0.0 0.00 0.00 0.00 87 1011.0
20260506035733 54 167 0.0 0.0 0.00 0.00 0.00 87 1011.0
20260506035619 54 167 0.0 0.0 0.00 0.00 0.00 87 1010.9
20260506035525 54 167 0.0 0.0 0.00 0.00 0.00 87 1011.0
20260506035411 54 167 0.0 0.0 0.00 0.00 0.00 86 1011.0
20260506035317 54 167 0.0 0.0 0.00 0.00 0.00 86 1011.0
20260506035227 54 167 0.0 0.0 0.00 0.00 0.00 86 1011.0
20260506035113 54 167 0.0 0.0 0.00 0.00 0.00 86 1010.9
20260506035026 54 167 0.0 0.0 0.00 0.00 0.00 86 1010.9
20260506034912 54 167 0.0 0.0 0.00 0.00 0.00 86 1010.9
20260506034818 54 167 0.0 0.0 0.00 0.00 0.00 86 1010.9
20260506034751 54 167 0.0 0.0 0.00 0.00 0.00 86 1010.9
20260506034620 54 167 0.0 0.0 0.00 0.00 0.00 86 1010.9
20260506034618 54 167 0.0 0.0 0.00 0.00 0.00 86 1010.5
20260506034526 54 167 0.0 0.0 0.00 0.00 0.00 86 1010.9
20260506034412 54 167 0.0 0.0 0.00 0.00 0.00 86 1010.9
20260506034318 54 167 0.0 0.0 0.00 0.00 0.00 86 1010.9
20260506034224 54 167 0.0 0.0 0.00 0.00 0.00 86 1010.9
20260506034114 54 167 0.0 0.0 0.00 0.00 0.00 86 1010.9
20260506034027 54 167 0.0 0.0 0.00 0.00 0.00 86 1010.9
20260506033913 55 167 0.0 0.0 0.00 0.00 0.00 86 1010.9
20260506033819 55 167 0.0 0.0 0.00 0.00 0.00 86 1010.9
20260506033725 55 167 0.0 0.0 0.00 0.00 0.00 86 1010.9
20260506033611 55 167 0.0 0.0 0.00 0.00 0.00 86 1010.9
20260506033521 55 167 0.0 0.0 0.00 0.00 0.00 86 1010.9
20260506033435 55 167 0.0 0.0 0.00 0.00 0.00 86 1010.9
20260506033321 55 167 0.0 0.0 0.00 0.00 0.00 86 1010.9
20260506033227 55 167 0.0 0.0 0.00 0.00 0.00 86 1010.9
20260506033133 55 167 0.0 0.0 0.00 0.00 0.00 85 1011.0
20260506033025 55 167 0.0 0.0 0.00 0.00 0.00 85 1011.0
20260506033023 54 167 0.0 0.0 0.00 0.00 0.00 85 1010.5
20260506032935 55 167 0.0 0.0 0.00 0.00 0.00 85 1011.0
20260506032847 55 167 0.0 0.0 0.00 0.00 0.00 85 1011.0
20260506032713 55 167 0.0 0.0 0.00 0.00 0.00 85 1011.0
20260506032618 55 167 0.0 0.0 0.00 0.00 0.00 85 1011.0
20260506032524 55 167 0.0 0.0 0.00 0.00 0.00 85 1011.0
20260506032410 55 167 0.0 0.0 0.00 0.00 0.00 85 1011.0
20260506032347 55 167 0.0 0.0 0.00 0.00 0.00 84 1011.0
20260506032212 55 167 0.0 0.0 0.00 0.00 0.00 85 1011.1
20260506032138 55 167 0.0 0.0 0.00 0.00 0.00 85 1011.1
20260506032030 55 167 0.0 0.0 0.00 0.00 0.00 85 1011.1
20260506031936 55 167 0.0 0.0 0.00 0.00 0.00 85 1011.1
20260506031821 56 167 0.0 0.0 0.00 0.00 0.00 85 1011.1
20260506031735 56 167 0.0 0.0 0.00 0.00 0.00 85 1011.2
20260506031623 56 167 0.0 0.0 0.00 0.00 0.00 85 1011.2
20260506031556 56 167 0.0 0.0 0.00 0.00 0.00 85 1011.1
20260506031541 55 167 0.0 0.0 0.00 0.00 0.00 85 1010.7
20260506031413 56 167 0.0 0.0 0.00 0.00 0.00 85 1011.1
20260506031327 56 167 0.0 0.0 0.00 0.00 0.00 85 1011.1
20260506031213 56 167 0.0 0.0 0.00 0.00 0.00 85 1011.1
20260506031119 56 167 0.0 0.0 0.00 0.00 0.00 85 1011.1
20260506031009 56 167 0.0 0.0 0.00 0.00 0.00 85 1011.1
20260506030915 56 167 0.0 0.0 0.00 0.00 0.00 84 1011.1
20260506030828 56 167 0.0 0.0 0.00 0.00 0.00 84 1011.1
20260506030734 56 167 0.0 0.0 0.00 0.00 0.00 84 1011.1
20260506030620 56 167 0.0 0.0 0.00 0.00 0.00 84 1011.1
20260506030510 56 167 0.0 0.0 0.00 0.00 0.00 84 1011.0
20260506030416 56 167 0.0 0.0 0.00 0.00 0.00 84 1011.0
20260506030322 56 167 0.0 0.0 0.00 0.00 0.00 84 1011.0
20260506030235 56 167 0.0 0.0 0.00 0.00 0.00 84 1011.0
20260506030122 56 167 0.0 0.0 0.00 0.00 0.00 84 1011.0
20260506030012 56 167 0.0 0.0 0.00 0.00 0.00 83 1011.0
20260506030003 56 167 0.0 0.0 0.00 0.00 0.00 83 1010.6
20260506025918 56 167 0.0 0.0 0.00 0.00 0.00 83 1011.0
20260506025824 57 167 0.0 0.0 0.00 0.00 0.00 83 1011.0
20260506025709 57 167 0.0 0.0 0.00 0.00 0.00 83 1011.0
20260506025615 57 167 0.0 0.0 0.00 0.00 0.00 83 1011.0
20260506025548 57 167 0.0 0.0 0.00 0.00 0.00 83 1011.0
20260506025417 57 167 0.0 0.0 0.00 0.00 0.00 83 1011.0
20260506025350 57 167 0.0 0.0 0.00 0.00 0.00 83 1011.0
20260506025215 57 167 0.0 0.0 0.00 0.00 0.00 83 1011.0
20260506025121 57 167 0.0 0.0 0.00 0.00 0.00 83 1011.0
20260506025027 57 167 0.0 0.0 0.00 0.00 0.00 83 1011.0
20260506024913 57 167 0.0 0.0 0.00 0.00 0.00 83 1011.0
20260506024823 57 167 0.0 0.0 0.00 0.00 0.00 84 1011.0
20260506024709 57 167 0.0 0.0 0.00 0.00 0.00 83 1010.9
20260506024642 57 167 0.0 0.0 0.00 0.00 0.00 83 1010.9
20260506024554 57 167 0.0 0.0 0.00 0.00 0.00 82 1011.0
20260506024524 57 167 0.0 0.0 0.00 0.00 0.00 82 1010.5
20260506024419 57 167 0.0 0.0 0.00 0.00 0.00 82 1011.0
20260506024325 57 167 0.0 0.0 0.00 0.00 0.00 82 1011.0
20260506024216 57 167 0.0 0.0 0.00 0.00 0.00 82 1011.1
20260506024121 57 167 0.0 0.0 0.00 0.00 0.00 82 1011.1
20260506024035 57 167 0.0 0.0 0.00 0.00 0.00 82 1011.1
20260506023914 58 167 0.0 0.0 0.00 0.00 0.00 82 1011.1
20260506023847 58 167 0.0 0.0 0.00 0.00 0.00 82 1011.1
20260506023712 58 167 0.0 0.0 0.00 0.00 0.00 82 1011.2
20260506023622 58 167 0.0 0.0 0.00 0.00 0.00 82 1011.2
20260506023535 58 167 0.0 0.0 0.00 0.00 0.00 82 1011.2
20260506023421 58 167 0.0 0.0 0.00 0.00 0.00 81 1011.2
20260506023327 58 167 0.0 0.0 0.00 0.00 0.00 81 1011.3
20260506023214 58 167 0.0 0.0 0.00 0.00 0.00 81 1011.3
20260506023120 58 167 0.0 0.0 0.00 0.00 0.00 81 1011.3
20260506023039 57 167 0.0 0.0 0.00 0.00 0.00 81 1010.9
20260506023010 58 167 0.0 0.0 0.00 0.00 0.00 81 1011.3
20260506022943 58 167 0.0 0.0 0.00 0.00 0.00 81 1011.3
20260506022838 58 167 0.0 0.0 0.00 0.00 0.00 81 1011.2
20260506022720 58 167 0.0 0.0 0.00 0.00 0.00 81 1011.2
20260506022633 58 167 0.0 0.0 0.00 0.00 0.00 81 1011.2
20260506022519 58 167 0.0 0.0 0.00 0.00 0.00 81 1011.2
20260506022449 58 167 0.0 0.0 0.00 0.00 0.00 81 1011.2
20260506022314 58 167 0.0 0.0 0.00 0.00 0.00 81 1011.2
20260506022227 58 167 0.0 0.0 0.00 0.00 0.00 80 1011.2
20260506022146 58 167 0.0 0.0 0.00 0.00 0.00 80 1011.2
20260506022010 58 167 0.0 0.0 0.00 0.00 0.00 80 1011.2
20260506021916 58 167 0.0 0.0 0.00 0.00 0.00 80 1011.2
20260506021833 58 167 0.0 0.0 0.00 0.00 0.00 80 1011.2
20260506021719 58 167 0.0 0.0 0.00 0.00 0.00 80 1011.2
20260506021625 58 167 0.0 0.0 0.00 0.00 0.00 80 1011.2
20260506021552 58 167 0.0 0.0 0.00 0.00 0.00 80 1010.7
20260506021510 58 167 0.0 0.0 0.00 0.00 0.00 80 1011.2
20260506021418 58 167 0.0 0.0 0.00 0.00 0.00 80 1011.2
20260506021318 58 167 0.0 0.0 0.00 0.00 0.00 80 1011.2
20260506021216 58 167 0.0 0.0 0.00 0.00 0.00 80 1011.2
20260506021120 58 167 0.0 0.0 0.00 0.00 0.00 80 1011.2
20260506021026 58 167 0.0 0.0 0.00 0.00 0.00 80 1011.2
20260506020913 58 167 0.0 0.0 0.00 0.00 0.00 80 1011.1
20260506020814 58 167 0.0 0.0 0.00 0.00 0.00 81 1011.1
20260506020731 58 167 0.0 0.0 0.00 0.00 0.00 80 1011.1
20260506020617 58 167 0.0 0.0 0.00 0.00 0.00 80 1011.1
20260506020523 58 167 0.0 0.0 0.00 0.00 0.00 79 1011.1
20260506020409 58 167 0.0 0.0 0.00 0.00 0.00 79 1011.1
20260506020313 59 167 0.0 0.0 0.00 0.00 0.00 79 1011.1
20260506020224 59 167 0.0 0.0 0.00 0.00 0.00 79 1011.1
20260506020113 59 167 0.0 0.0 0.00 0.00 0.00 79 1011.1
20260506020055 58 167 0.0 0.0 0.00 0.00 0.00 79 1010.7
20260506020012 59 167 0.0 0.0 0.00 0.00 0.00 79 1011.1
20260506015918 59 167 0.0 0.0 0.00 0.00 0.00 79 1011.1
20260506015831 59 167 0.0 0.0 0.00 0.00 0.00 79 1011.1
20260506015717 59 167 0.0 0.0 0.00 0.00 0.00 79 1011.0
20260506015623 59 167 0.0 0.0 0.00 0.00 0.00 78 1011.0
20260506015533 59 167 0.0 0.0 0.00 0.00 0.00 78 1011.1
20260506015445 59 167 0.0 0.0 0.00 0.00 0.00 78 1011.1
20260506015310 59 167 0.0 0.0 0.00 0.00 0.00 78 1011.0
20260506015216 59 167 0.0 0.0 0.00 0.00 0.00 78 1011.0
20260506015122 59 167 0.0 0.0 0.00 0.00 0.00 78 1011.0
20260506015035 59 167 0.0 0.0 0.00 0.00 0.00 78 1011.0
20260506014940 59 167 0.0 0.0 0.00 0.00 0.00 78 1011.0
20260506014809 59 167 0.0 0.0 0.00 0.00 0.00 78 1011.0
20260506014722 59 167 0.0 0.0 0.00 0.00 0.00 78 1011.0
20260506014628 60 167 0.0 0.0 0.00 0.00 0.00 77 1010.9
20260506014559 59 167 0.0 0.0 0.00 0.00 0.00 77 1010.5
20260506014514 60 167 0.0 0.0 0.00 0.00 0.00 77 1011.0
20260506014420 60 167 0.0 0.0 0.00 0.00 0.00 77 1011.0
20260506014338 60 167 0.0 0.0 0.00 0.00 0.00 77 1011.0
20260506014219 60 167 0.0 0.0 0.00 0.00 0.00 76 1011.0
20260506014114 60 167 0.0 0.0 0.00 0.00 0.00 77 1011.0
20260506014019 60 167 0.0 0.0 0.00 0.00 0.00 76 1011.0
20260506013932 60 167 0.0 0.0 0.00 0.00 0.00 76 1011.0
20260506013818 60 167 0.0 0.0 0.00 0.00 0.00 76 1011.0
20260506013727 60 167 0.0 0.0 0.00 0.00 0.00 76 1011.0
20260506013610 60 167 0.0 0.0 0.00 0.00 0.00 76 1011.0
20260506013515 60 167 0.0 0.0 0.00 0.00 0.00 76 1011.0
20260506013448 60 167 0.0 0.0 0.00 0.00 0.00 76 1011.0
20260506013333 60 167 0.0 0.0 0.00 0.00 0.00 76 1011.0
20260506013218 61 167 0.0 0.0 0.00 0.00 0.00 76 1011.0
20260506013148 61 167 0.0 0.0 0.00 0.00 0.00 76 1011.0
20260506013102 60 167 0.0 0.0 0.00 0.00 0.00 76 1010.5
20260506013017 61 167 0.0 0.0 0.00 0.00 0.00 75 1011.0
20260506012923 61 167 0.0 0.0 0.00 0.00 0.00 75 1011.0
20260506012836 61 167 0.0 0.0 0.00 0.00 0.00 74 1010.9
20260506012718 61 167 0.0 0.0 0.00 0.00 0.00 74 1011.0
20260506012623 61 167 0.0 0.0 0.00 0.00 0.00 73 1011.0
20260506012512 61 167 0.0 0.0 0.00 0.00 0.00 73 1010.9
20260506012442 61 167 0.0 0.0 0.00 0.00 0.00 73 1010.9
20260506012313 61 167 0.0 0.0 0.00 0.00 0.00 71 1010.9
20260506012225 61 167 0.0 0.0 0.00 0.00 0.00 71 1010.9
20260506012126 62 167 0.0 0.0 0.00 0.00 0.00 72 1010.8
20260506012059 62 167 0.0 0.0 0.00 0.00 0.00 73 1010.8
20260506011922 62 167 0.0 0.0 0.00 0.00 0.00 74 1010.8
20260506011822 62 167 0.0 0.0 0.00 0.00 0.00 74 1010.7
20260506011724 62 167 0.0 0.0 0.00 0.00 0.00 74 1010.7
20260506011638 62 167 0.0 0.0 0.00 0.00 0.00 74 1010.7
20260506011610 62 167 0.0 0.0 0.00 0.00 0.00 74 1010.3
20260506011522 62 167 0.0 0.0 0.00 0.00 0.00 74 1010.7
20260506011428 62 167 0.0 0.0 0.00 0.00 0.00 74 1010.6
20260506011327 62 167 0.0 0.0 0.00 0.00 0.00 74 1010.7
20260506011213 62 167 0.0 0.0 0.00 0.00 0.00 74 1010.7
20260506011124 63 167 0.0 0.0 0.00 0.00 0.00 74 1010.7
20260506011024 63 167 0.0 0.0 0.00 0.00 0.00 75 1010.6
20260506010911 63 167 0.0 0.0 0.00 0.00 0.00 73 1010.7
20260506010844 63 167 0.0 0.0 0.00 0.00 0.00 73 1010.7
20260506010740 63 167 0.0 0.0 0.00 0.00 0.00 69 1010.6
20260506010626 63 167 0.0 0.0 0.00 0.00 0.00 70 1010.6
20260506010509 63 167 0.0 0.0 0.00 0.00 0.00 70 1010.6
20260506010442 63 167 0.0 0.0 0.00 0.00 0.00 70 1010.6
20260506010355 63 167 0.0 0.0 0.00 0.00 0.00 67 1010.6
20260506010212 63 167 0.0 0.0 0.00 0.00 0.00 65 1010.7
20260506010125 63 167 0.0 0.0 0.00 0.00 0.00 65 1010.7
20260506010121 63 167 0.0 0.0 0.00 0.00 0.00 65 1010.2
20260506010015 63 167 0.0 0.0 0.00 0.00 0.00 65 1010.6
20260506005932 63 167 0.0 0.0 0.00 0.00 0.00 65 1010.6
20260506005811 64 167 0.0 0.0 0.00 0.00 0.00 65 1010.6
20260506005724 64 167 0.0 0.0 0.00 0.00 0.00 64 1010.6
20260506005632 64 167 0.0 0.0 0.00 0.00 0.00 64 1010.6
20260506005514 64 167 0.0 0.0 0.00 0.00 0.00 65 1010.6
20260506005420 64 167 0.0 0.0 0.00 0.00 0.00 63 1010.6
20260506005311 64 167 0.0 0.0 0.00 0.00 0.00 63 1010.6
20260506005224 64 167 0.0 0.0 0.00 0.00 0.00 63 1010.6
20260506005121 64 167 0.0 0.0 0.00 0.00 0.00 64 1010.6
20260506005028 64 167 0.0 0.0 0.00 0.00 0.00 63 1010.6
20260506004940 64 167 0.0 0.0 0.00 0.00 0.00 63 1010.6
20260506004823 64 167 0.0 0.0 0.00 0.00 0.00 61 1010.5
20260506004709 65 167 0.0 0.0 0.00 0.00 0.00 61 1010.5
20260506004614 65 167 0.0 0.0 0.00 0.00 0.00 61 1010.5
20260506004548 64 167 0.0 0.0 0.00 0.00 0.00 62 1010.1
20260506004521 65 167 0.0 0.0 0.00 0.00 0.00 62 1010.5
20260506004420 65 167 0.0 0.0 0.00 0.00 0.00 62 1010.5
20260506004332 65 167 0.0 0.0 0.00 0.00 0.00 62 1010.5
20260506004220 65 167 0.0 0.0 0.00 0.00 0.00 61 1010.5
20260506004154 65 167 0.0 0.0 0.00 0.00 0.00 60 1010.5
20260506004038 65 167 0.0 0.0 0.00 0.00 0.00 61 1010.4
20260506003920 66 167 0.0 0.0 0.00 0.00 0.00 59 1010.4
20260506003833 66 167 0.0 0.0 0.00 0.00 0.00 57 1010.4
20260506003709 66 167 0.0 0.0 0.00 0.00 0.00 60 1010.4
20260506003616 66 167 0.0 0.0 0.00 0.00 0.00 60 1010.4
20260506003526 66 167 0.0 0.0 0.00 0.00 0.00 59 1010.4
20260506003432 66 167 0.0 0.0 0.00 0.00 0.00 59 1010.4
20260506003324 66 167 0.0 0.0 0.00 0.00 0.00 58 1010.4
20260506003210 67 167 0.0 0.0 0.00 0.00 0.00 58 1010.3
20260506003116 67 167 0.0 0.0 0.00 0.00 0.00 59 1010.3
20260506003036 66 167 0.0 0.0 0.00 0.00 0.00 57 1009.9
20260506003016 67 167 0.0 0.0 0.00 0.00 0.00 57 1010.3
20260506002933 67 167 0.0 0.0 0.00 0.00 0.00 56 1010.3
20260506002839 67 167 0.0 0.0 0.00 0.00 0.00 57 1010.3
20260506002724 67 167 0.0 0.0 0.00 0.00 0.00 55 1010.3
20260506002610 67 167 0.0 0.0 0.00 0.00 0.00 55 1010.3
20260506002516 68 167 0.0 0.0 0.00 0.00 0.00 55 1010.3
20260506002429 68 167 0.0 0.0 0.00 0.00 0.00 54 1010.3
20260506002319 68 167 0.0 0.0 0.00 0.00 0.00 54 1010.3
20260506002225 68 167 0.0 0.0 0.00 0.00 0.00 53 1010.3
20260506002111 68 167 0.0 0.0 0.00 0.00 0.00 55 1010.2
20260506002014 68 167 0.0 0.0 0.00 0.00 0.00 55 1010.2
20260506001947 68 167 0.0 0.0 0.00 0.00 0.00 55 1010.2
20260506001817 69 167 0.0 0.0 0.00 0.00 0.00 56 1010.2
20260506001723 69 167 0.0 0.0 0.00 0.00 0.00 56 1010.2
20260506001637 69 167 0.0 0.0 0.00 0.00 0.00 54 1010.2
20260506001627 68 167 0.0 0.0 0.00 0.00 0.00 54 1009.8
20260506001539 69 167 0.0 0.0 0.00 0.00 0.00 52 1010.2
20260506001424 69 167 0.0 0.0 0.00 0.00 0.00 52 1010.2
20260506001222 70 167 0.0 0.0 0.00 0.00 0.00 52 1010.1
20260506001129 70 167 0.0 0.0 0.00 0.00 0.00 52 1010.1
20260506001029 70 167 0.0 0.0 0.00 0.00 0.00 53 1010.1
20260506000914 70 167 0.0 0.0 0.00 0.00 0.00 51 1010.1
20260506000847 70 167 0.0 0.0 0.00 0.00 0.00 50 1010.1
20260506000712 70 167 0.0 0.0 0.00 0.00 0.00 50 1010.0
20260506000615 71 167 0.0 0.0 0.00 0.00 0.00 51 1010.0
20260506000533 71 167 0.0 0.0 0.00 0.00 0.00 51 1010.0
20260506000438 71 167 0.0 0.0 0.00 0.00 0.00 49 1010.0
20260506000319 71 167 0.0 0.0 0.00 0.00 0.00 47 1010.0
20260506000219 71 167 0.0 0.0 0.00 0.00 0.00 46 1010.0
20260506000122 71 167 0.0 0.0 0.00 0.00 0.00 49 1010.0
20260506000030 71 167 0.0 0.0 0.00 0.00 0.00 48 1009.6
20260506000011 72 167 0.0 0.0 0.00 0.00 0.00 48 1010.0
20260505235924 72 167 0.0 0.0 0.00 0.00 0.00 47 1010.0
20260505235810 72 167 0.0 0.0 0.00 0.00 0.00 48 1010.1
20260505235717 72 167 0.0 0.0 0.00 0.00 0.00 45 1010.0
20260505235622 72 167 0.0 0.0 0.00 0.00 0.00 49 1010.0
20260505235528 72 167 0.0 0.0 0.00 0.00 0.00 46 1010.0
20260505235445 72 167 0.0 0.0 0.00 0.00 0.00 45 1010.0
20260505235321 73 167 0.0 0.0 0.00 0.00 0.00 46 1010.0
20260505235227 73 167 0.0 0.0 0.00 0.00 0.00 46 1010.0
20260505235113 73 167 0.0 0.0 0.00 0.00 0.00 43 1010.0
20260505235019 73 167 0.0 0.0 0.00 0.00 0.00 42 1010.0
20260505234909 73 167 0.0 0.0 0.00 0.00 0.00 43 1009.9
20260505234823 73 167 0.0 0.0 0.00 0.00 0.00 46 1009.9
20260505234728 74 167 0.0 0.0 0.00 0.00 0.00 41 1009.9
20260505234634 74 167 0.0 0.0 0.00 0.00 0.00 43 1009.9
20260505234546 74 167 0.0 0.0 0.00 0.00 0.00 45 1009.9
20260505234504 74 167 0.0 0.0 0.00 0.00 0.00 45 1009.4
20260505234410 74 167 0.0 0.0 0.00 0.00 0.00 41 1009.9
20260505234336 74 167 0.0 0.0 0.00 0.00 0.00 40 1009.9
20260505234232 75 167 0.0 0.0 0.00 0.00 0.00 42 1009.9
20260505234117 75 167 0.0 0.0 0.00 0.00 0.00 40 1009.9
20260505234023 75 167 0.0 0.0 0.00 0.00 0.00 39 1009.9
20260505233909 75 167 0.0 1.0 0.00 0.00 0.00 39 1009.9
20260505233823 75 167 0.0 1.0 0.00 0.00 0.00 39 1009.9
20260505233727 75 142 0.0 1.0 0.00 0.00 0.00 40 1009.9
20260505233610 76 37 0.0 1.0 0.00 0.00 0.00 39 1009.9
20260505233517 76 37 0.0 4.0 0.00 0.00 0.00 39 1009.9
20260505233430 76 36 0.0 4.0 0.00 0.00 0.00 38 1009.9
20260505233335 76 64 0.0 4.0 0.00 0.00 0.00 38 1009.9
20260505233227 76 189 0.0 4.0 0.00 0.00 0.00 38 1009.9
20260505233118 76 54 0.0 4.0 0.00 0.00 0.00 35 1009.3
20260505233113 77 57 0.0 4.0 0.00 0.00 0.00 35 1009.8
20260505233018 77 134 0.0 4.0 0.00 0.00 0.00 37 1009.9
20260505232924 77 200 0.0 4.0 0.00 0.00 0.00 39 1009.9
20260505232810 77 234 1.0 4.0 0.00 0.00 0.00 34 1009.9
20260505232724 77 31 1.0 4.0 0.00 0.00 0.00 36 1009.9
20260505232649 77 32 0.0 0.0 0.00 0.00 0.00 37 1009.9
20260505232514 78 292 0.0 0.0 0.00 0.00 0.00 38 1009.8
20260505232420 78 20 0.0 0.0 0.00 0.00 0.00 35 1009.8
20260505232310 78 311 0.0 2.0 0.00 0.00 0.00 36 1009.8
20260505232243 78 14 0.0 2.0 0.00 0.00 0.00 35 1009.8
20260505232128 78 5 0.0 2.0 0.00 0.00 0.00 35 1009.9
20260505232041 78 5 0.0 2.0 0.00 0.00 0.00 34 1009.9
20260505231926 78 282 0.0 5.0 0.00 0.00 0.00 34 1009.9
20260505231832 78 128 0.0 5.0 0.00 0.00 0.00 35 1009.8
20260505231727 78 219 0.0 5.0 0.00 0.00 0.00 33 1009.8
20260505231615 78 53 0.0 5.0 0.00 0.00 0.00 34 1009.8
20260505231605 78 22 0.0 5.0 0.00 0.00 0.00 34 1009.3
20260505231519 78 5 0.0 6.0 0.00 0.00 0.00 33 1009.8
20260505231425 78 291 0.0 6.0 0.00 0.00 0.00 32 1009.8
20260505231331 78 301 0.0 6.0 0.00 0.00 0.00 32 1009.8
20260505231241 78 28 1.0 6.0 0.00 0.00 0.00 32 1009.9
20260505231123 78 32 2.0 6.0 0.00 0.00 0.00 35 1009.8
20260505231010 78 40 2.0 6.0 0.00 0.00 0.00 32 1009.8
20260505230936 78 211 2.0 6.0 0.00 0.00 0.00 33 1009.8
20260505230827 78 273 2.0 6.0 0.00 0.00 0.00 33 1009.8
20260505230734 78 43 1.0 6.0 0.00 0.00 0.00 32 1009.8
20260505230639 78 113 0.0 0.0 0.00 0.00 0.00 34 1009.9
20260505230537 79 277 0.0 0.0 0.00 0.00 0.00 35 1009.8
20260505230420 79 5 0.0 0.0 0.00 0.00 0.00 33 1009.8
20260505230326 79 31 0.0 0.0 0.00 0.00 0.00 34 1009.7
20260505230233 79 79 0.0 1.0 0.00 0.00 0.00 34 1009.8
20260505230125 79 65 0.0 7.0 0.00 0.00 0.00 31 1009.8
20260505230109 78 35 0.0 7.0 0.00 0.00 0.00 31 1009.3
20260505230011 79 153 0.0 7.0 0.00 0.00 0.00 32 1009.8
20260505225921 79 44 0.0 7.0 0.00 0.00 0.00 32 1009.8
20260505225827 79 5 0.0 7.0 0.00 0.00 0.00 31 1009.8
20260505225713 79 329 0.0 7.0 0.00 0.00 0.00 31 1009.8
20260505225619 79 9 0.0 7.0 0.00 0.00 0.00 32 1009.8
20260505225532 79 338 0.0 9.0 0.00 0.00 0.00 31 1009.8
20260505225419 79 327 1.0 9.0 0.00 0.00 0.00 33 1009.9
20260505225309 79 38 1.0 11.0 0.00 0.00 0.00 34 1009.8
20260505225216 79 331 0.0 11.0 0.00 0.00 0.00 32 1010.0
20260505225119 79 56 0.0 11.0 0.00 0.00 0.00 31 1010.0
20260505225032 79 60 0.0 11.0 0.00 0.00 0.00 31 1009.8
20260505224911 79 57 0.0 11.0 0.00 0.00 0.00 31 1009.9
20260505224828 79 346 2.0 11.0 0.00 0.00 0.00 32 1009.9
20260505224734 79 288 3.0 11.0 0.00 0.00 0.00 30 1009.9
20260505224619 79 344 3.0 11.0 0.00 0.00 0.00 31 1009.9
20260505224532 79 317 2.0 11.0 0.00 0.00 0.00 30 1009.8
20260505224513 79 243 2.0 11.0 0.00 0.00 0.00 30 1009.5
20260505224418 79 258 0.0 3.0 0.00 0.00 0.00 33 1009.8
20260505224324 79 138 0.0 3.0 0.00 0.00 0.00 31 1009.8
20260505224214 79 286 0.0 8.0 0.00 0.00 0.00 31 1009.8
20260505224120 79 88 0.0 10.0 0.00 0.00 0.00 31 1009.8
20260505224033 79 36 0.0 10.0 0.00 0.00 0.00 30 1009.8
20260505223912 80 101 0.0 10.0 0.00 0.00 0.00 31 1009.8
20260505223845 80 265 0.0 10.0 0.00 0.00 0.00 30 1009.8
20260505223711 80 44 0.0 10.0 0.00 0.00 0.00 30 1009.9
20260505223621 80 5 0.0 10.0 0.00 0.00 0.00 30 1009.9
20260505223534 80 342 0.0 10.0 0.00 0.00 0.00 30 1009.8
20260505223420 80 89 1.0 10.0 0.00 0.00 0.00 30 1009.8
20260505223326 80 121 1.0 10.0 0.00 0.00 0.00 30 1009.9
20260505223212 80 327 1.0 10.0 0.00 0.00 0.00 30 1009.8
20260505223122 80 74 1.0 13.0 0.00 0.00 0.00 30 1009.8
20260505223036 80 32 0.0 13.0 0.00 0.00 0.00 31 1009.8
20260505223028 80 55 0.0 13.0 0.00 0.00 0.00 31 1009.4
20260505222913 81 52 0.0 13.0 0.00 0.00 0.00 30 1009.9
20260505222826 81 78 0.0 13.0 0.00 0.00 0.00 30 1009.9
20260505222714 81 42 0.0 13.0 0.00 0.00 0.00 29 1009.8
20260505222619 81 32 1.0 13.0 0.00 0.00 0.00 29 1009.8
20260505222556 81 89 1.0 13.0 0.00 0.00 0.00 29 1009.9
20260505222421 81 23 2.0 13.0 0.00 0.00 0.00 30 1009.9
20260505222327 81 227 2.0 13.0 0.00 0.00 0.00 31 1009.9
20260505222211 81 58 0.0 3.0 0.00 0.00 0.00 29 1009.9
20260505222117 81 23 0.0 3.0 0.00 0.00 0.00 29 1010.0
20260505222023 81 323 0.0 3.0 0.00 0.00 0.00 33 1010.0
20260505221913 81 288 0.0 3.0 0.00 0.00 0.00 30 1010.0
20260505221827 81 325 0.0 3.0 0.00 0.00 0.00 31 1010.0
20260505221732 81 105 0.0 3.0 0.00 0.00 0.00 31 1010.0
20260505221617 81 213 0.0 3.0 0.00 0.00 0.00 31 1010.0
20260505221530 81 121 0.0 3.0 0.00 0.00 0.00 32 1010.0
20260505221520 81 211 0.0 3.0 0.00 0.00 0.00 32 1009.6
20260505221421 81 143 0.0 3.0 0.00 0.00 0.00 31 1010.0
20260505221326 81 58 0.0 3.0 0.00 0.00 0.00 30 1010.0
20260505221212 81 105 0.0 0.0 0.00 0.00 0.00 31 1010.1
20260505221138 81 321 0.0 0.0 0.00 0.00 0.00 31 1010.1
20260505221030 81 317 0.0 0.0 0.00 0.00 0.00 31 1010.0
20260505220915 81 15 0.0 0.0 0.00 0.00 0.00 31 1010.0
20260505220821 81 125 0.0 0.0 0.00 0.00 0.00 30 1010.0
20260505220711 81 203 0.0 0.0 0.00 0.00 0.00 31 1010.0
20260505220624 81 13 0.0 0.0 0.00 0.00 0.00 31 1010.0
20260505220531 81 32 0.0 1.0 0.00 0.00 0.00 30 1009.9
20260505220416 81 302 0.0 1.0 0.00 0.00 0.00 31 1010.0
20260505220349 81 73 0.0 6.0 0.00 0.00 0.00 33 1010.0
20260505220214 81 36 0.0 6.0 0.00 0.00 0.00 30 1009.8
20260505220121 81 50 0.0 6.0 0.00 0.00 0.00 30 1009.8
20260505220054 81 44 0.0 6.0 0.00 0.00 0.00 31 1009.8
20260505220011 81 47 0.0 6.0 0.00 0.00 0.00 31 1009.5
20260505215940 81 315 0.0 6.0 0.00 0.00 0.00 29 1009.9
20260505215824 81 298 0.0 6.0 0.00 0.00 0.00 31 1009.9
20260505215737 81 55 0.0 6.0 0.00 0.00 0.00 31 1009.9
20260505215619 81 40 1.0 6.0 0.00 0.00 0.00 30 1009.8
20260505215509 81 300 2.0 6.0 0.00 0.00 0.00 31 1009.8
20260505215416 81 55 1.0 7.0 0.00 0.00 0.00 30 1009.9
20260505215322 81 48 0.0 9.0 0.00 0.00 0.00 31 1009.9
20260505215228 81 334 0.0 9.0 0.00 0.00 0.00 29 1009.9
20260505215114 81 360 0.0 9.0 0.00 0.00 0.00 30 1009.8
20260505215027 81 36 0.0 9.0 0.00 0.00 0.00 29 1009.8
20260505214917 82 340 0.0 9.0 0.00 0.00 0.00 29 1009.8
20260505214823 82 17 0.0 9.0 0.00 0.00 0.00 29 1009.8
20260505214709 82 266 0.0 9.0 0.00 0.00 0.00 29 1009.7
20260505214640 81 267 0.0 9.0 0.00 0.00 0.00 29 1009.3
20260505214615 82 73 1.0 9.0 0.00 0.00 0.00 29 1009.8
20260505214548 82 323 1.0 9.0 0.00 0.00 0.00 28 1009.8
20260505214501 82 355 1.0 9.0 0.00 0.00 0.00 30 1009.8
20260505214319 82 24 0.0 8.0 0.00 0.00 0.00 28 1009.7
20260505214225 82 9 1.0 8.0 0.00 0.00 0.00 28 1009.7
20260505214111 82 51 1.0 9.0 0.00 0.00 0.00 28 1009.6
20260505214016 82 53 1.0 9.0 0.00 0.00 0.00 27 1009.7
20260505213922 82 181 0.0 9.0 0.00 0.00 0.00 28 1009.7
20260505213813 82 75 1.0 9.0 0.00 0.00 0.00 28 1009.6
20260505213726 82 340 1.0 9.0 0.00 0.00 0.00 28 1009.6
20260505213611 82 277 0.0 9.0 0.00 0.00 0.00 29 1009.6
20260505213518 82 355 0.0 9.0 0.00 0.00 0.00 28 1009.5
20260505213444 82 58 1.0 9.0 0.00 0.00 0.00 27 1009.5
20260505213335 82 58 1.0 9.0 0.00 0.00 0.00 27 1009.6
20260505213220 82 130 1.0 8.0 0.00 0.00 0.00 27 1009.6
20260505213131 82 35 0.0 8.0 0.00 0.00 0.00 27 1009.6
20260505213022 82 55 0.0 8.0 0.00 0.00 0.00 27 1009.6
20260505213008 82 26 0.0 8.0 0.00 0.00 0.00 27 1009.1
20260505212928 82 331 0.0 8.0 0.00 0.00 0.00 28 1009.5
20260505212814 82 213 0.0 9.0 0.00 0.00 0.00 28 1009.6
20260505212747 82 332 1.0 9.0 0.00 0.00 0.00 27 1009.6
20260505212612 82 21 1.0 9.0 0.00 0.00 0.00 27 1009.5
20260505212522 82 355 1.0 9.0 0.00 0.00 0.00 27 1009.5
20260505212428 82 349 1.0 12.0 0.00 0.00 0.00 26 1009.4
20260505212314 82 36 0.0 12.0 0.00 0.00 0.00 27 1009.6
20260505212220 82 60 0.0 12.0 0.00 0.00 0.00 25 1009.6
20260505212133 82 30 1.0 12.0 0.00 0.00 0.00 26 1009.6
20260505212023 82 65 3.0 12.0 0.00 0.00 0.00 26 1009.6
20260505211909 82 23 1.0 12.0 0.00 0.00 0.00 25 1009.7
20260505211815 83 355 1.0 12.0 0.00 0.00 0.00 25 1009.5
20260505211721 83 49 2.0 12.0 0.00 0.00 0.00 25 1009.5
20260505211635 83 44 2.0 12.0 0.00 0.00 0.00 26 1009.4
20260505211627 82 57 1.0 12.0 0.00 0.00 0.00 26 1009.0
20260505211540 83 14 2.0 9.0 0.00 0.00 0.00 25 1009.5
20260505211409 83 40 2.0 9.0 0.00 0.00 0.00 26 1009.4
20260505211315 83 65 0.0 10.0 0.00 0.00 0.00 26 1009.4
20260505211248 83 101 0.0 10.0 0.00 0.00 0.00 28 1009.4
20260505211113 83 69 0.0 15.0 0.00 0.00 0.00 27 1009.4
20260505211018 83 319 1.0 15.0 0.00 0.00 0.00 26 1009.4
20260505210924 84 257 1.0 15.0 0.00 0.00 0.00 26 1009.4
20260505210814 84 48 0.0 15.0 0.00 0.00 0.00 27 1009.4
20260505210747 84 96 0.0 15.0 0.00 0.00 0.00 26 1009.4
20260505210632 84 48 1.0 15.0 0.00 0.00 0.00 27 1009.5
20260505210525 84 288 1.0 15.0 0.00 0.00 0.00 28 1009.5
20260505210430 84 47 2.0 15.0 0.00 0.00 0.00 27 1009.4
20260505210315 84 326 1.0 15.0 0.00 0.00 0.00 28 1009.4
20260505210221 84 46 1.0 15.0 0.00 0.00 0.00 27 1009.4
20260505210111 84 321 2.0 9.0 0.00 0.00 0.00 27 1009.5
20260505210024 83 49 2.0 9.0 0.00 0.00 0.00 27 1009.5
20260505210008 83 20 1.0 9.0 0.00 0.00 0.00 27 1008.9
20260505205910 83 30 0.0 9.0 0.00 0.00 0.00 31 1009.5
20260505205815 83 11 0.0 9.0 0.00 0.00 0.00 27 1009.5
20260505205721 83 82 1.0 9.0 0.00 0.00 0.00 27 1009.5
20260505205612 83 306 2.0 9.0 0.00 0.00 0.00 29 1009.5
20260505205518 83 355 1.0 9.0 0.00 0.00 0.00 27 1009.6
20260505205431 83 269 2.0 9.0 0.00 0.00 0.00 28 1009.6
20260505205317 83 28 1.0 9.0 0.00 0.00 0.00 28 1009.5
20260505205222 83 321 0.0 5.0 0.00 0.00 0.00 28 1009.5
20260505205156 83 329 0.0 5.0 0.00 0.00 0.00 28 1009.4
20260505205024 83 319 0.0 6.0 0.00 0.00 0.00 28 1009.5
20260505204910 83 90 0.0 10.0 0.00 0.00 0.00 29 1009.4
20260505204816 83 17 0.0 10.0 0.00 0.00 0.00 31 1009.5
20260505204722 83 21 0.0 10.0 0.00 0.00 0.00 30 1009.5
20260505204628 83 22 0.0 10.0 0.00 0.00 0.00 30 1009.6
20260505204541 82 5 0.0 10.0 0.00 0.00 0.00 31 1009.6
20260505204501 82 35 0.0 10.0 0.00 0.00 0.00 32 1009.1
20260505204411 82 11 0.0 10.0 0.00 0.00 0.00 29 1009.5
20260505204316 82 17 2.0 10.0 0.00 0.00 0.00 29 1009.5
20260505204222 82 58 3.0 10.0 0.00 0.00 0.00 29 1009.5
20260505204135 82 74 2.0 13.0 0.00 0.00 0.00 29 1009.5
20260505204021 82 5 1.0 13.0 0.00 0.00 0.00 29 1009.4
20260505203912 82 300 1.0 13.0 0.00 0.00 0.00 28 1009.4
20260505203817 82 317 1.0 13.0 0.00 0.00 0.00 29 1009.5
20260505203723 82 55 1.0 13.0 0.00 0.00 0.00 29 1009.5
20260505203626 82 95 1.0 13.0 0.00 0.00 0.00 28 1009.5
20260505203512 83 265 2.0 16.0 0.00 0.00 0.00 28 1009.5
20260505203425 83 319 2.0 16.0 0.00 0.00 0.00 28 1009.5
20260505203335 83 10 3.0 16.0 0.00 0.00 0.00 28 1009.5
20260505203221 83 71 2.0 16.0 0.00 0.00 0.00 28 1009.5
20260505203134 83 30 1.0 16.0 0.00 0.00 0.00 29 1009.6
20260505203025 82 40 0.0 16.0 0.00 0.00 0.00 30 1009.1
20260505203021 83 38 0.0 16.0 0.00 0.00 0.00 30 1009.5
20260505202926 83 36 0.0 16.0 0.00 0.00 0.00 28 1009.5
20260505202816 83 288 2.0 16.0 0.00 0.00 0.00 28 1009.6
20260505202743 83 291 2.0 16.0 0.00 0.00 0.00 28 1009.6
20260505202633 83 238 1.0 16.0 0.00 0.00 0.00 28 1009.6
20260505202519 83 69 0.0 5.0 0.00 0.00 0.00 30 1009.6
20260505202425 83 57 0.0 5.0 0.00 0.00 0.00 29 1009.5
20260505202311 83 24 0.0 5.0 0.00 0.00 0.00 29 1009.5
20260505202220 83 343 0.0 12.0 0.00 0.00 0.00 30 1009.5
20260505202133 83 17 0.0 12.0 0.00 0.00 0.00 29 1009.5
20260505202039 83 13 0.0 12.0 0.00 0.00 0.00 30 1009.6
20260505202007 83 24 0.0 12.0 0.00 0.00 0.00 29 1009.5
20260505201813 83 9 0.0 12.0 0.00 0.00 0.00 28 1009.6
20260505201726 83 153 1.0 12.0 0.00 0.00 0.00 29 1009.6
20260505201616 83 98 1.0 12.0 0.00 0.00 0.00 28 1009.6
20260505201558 83 67 2.0 12.0 0.00 0.00 0.00 28 1009.1
20260505201522 83 18 2.0 12.0 0.00 0.00 0.00 28 1009.6
20260505201428 84 44 2.0 12.0 0.00 0.00 0.00 28 1009.5
20260505201341 84 44 1.0 6.0 0.00 0.00 0.00 29 1009.5
20260505201226 84 303 0.0 5.0 0.00 0.00 0.00 29 1009.6
20260505201112 84 317 0.0 5.0 0.00 0.00 0.00 30 1009.5
20260505201038 84 18 0.0 5.0 0.00 0.00 0.00 29 1009.5
20260505200934 84 360 0.0 9.0 0.00 0.00 0.00 28 1009.6
20260505200839 84 28 0.0 9.0 0.00 0.00 0.00 27 1009.6
20260505200731 84 278 0.0 10.0 0.00 0.00 0.00 27 1009.6
20260505200615 84 355 0.0 10.0 0.00 0.00 0.00 27 1009.7
20260505200522 84 229 0.0 10.0 0.00 0.00 0.00 27 1009.7
20260505200455 84 326 0.0 10.0 0.00 0.00 0.00 29 1009.7
20260505200324 84 306 0.0 10.0 0.00 0.00 0.00 29 1009.7
20260505200231 84 36 1.0 10.0 0.00 0.00 0.00 28 1009.8
20260505200143 84 38 1.0 10.0 0.00 0.00 0.00 28 1009.8
20260505200109 84 326 1.0 10.0 0.00 0.00 0.00 28 1009.3
20260505200048 84 14 2.0 10.0 0.00 0.00 0.00 28 1009.7
20260505195912 84 272 1.0 10.0 0.00 0.00 0.00 28 1009.8
20260505195818 84 298 0.0 10.0 0.00 0.00 0.00 30 1009.8
20260505195731 84 9 0.0 10.0 0.00 0.00 0.00 29 1009.8
20260505195619 84 30 0.0 11.0 0.00 0.00 0.00 29 1009.7
20260505195524 84 79 0.0 11.0 0.00 0.00 0.00 28 1009.7
20260505195410 84 319 0.0 11.0 0.00 0.00 0.00 28 1009.7
20260505195316 84 310 1.0 11.0 0.00 0.00 0.00 27 1009.7
20260505195229 83 91 2.0 11.0 0.00 0.00 0.00 27 1009.7
20260505195119 83 44 1.0 11.0 0.00 0.00 0.00 27 1009.7
20260505195025 83 115 1.0 11.0 0.00 0.00 0.00 27 1009.7
20260505194912 83 102 1.0 11.0 0.00 0.00 0.00 27 1009.7
20260505194838 83 19 2.0 11.0 0.00 0.00 0.00 28 1009.8
20260505194750 83 92 2.0 12.0 0.00 0.00 0.00 26 1009.8
20260505194614 84 32 1.0 12.0 0.00 0.00 0.00 26 1009.8
20260505194538 83 225 1.0 12.0 0.00 0.00 0.00 26 1009.3
20260505194519 84 61 1.0 12.0 0.00 0.00 0.00 26 1009.7
20260505194409 84 55 1.0 12.0 0.00 0.00 0.00 27 1009.8
20260505194322 84 95 1.0 12.0 0.00 0.00 0.00 26 1009.8
20260505194248 84 103 2.0 12.0 0.00 0.00 0.00 26 1009.9
20260505194111 84 318 1.0 12.0 0.00 0.00 0.00 27 1009.8
20260505194044 84 24 2.0 12.0 0.00 0.00 0.00 27 1009.8
20260505193949 84 305 2.0 12.0 0.00 0.00 0.00 26 1009.8
20260505193826 84 44 0.0 9.0 0.00 0.00 0.00 28 1009.9
20260505193731 84 60 0.0 9.0 0.00 0.00 0.00 27 1009.8
20260505193617 84 9 0.0 13.0 0.00 0.00 0.00 26 1009.8
20260505193513 84 42 0.0 13.0 0.00 0.00 0.00 26 1009.9
20260505193416 84 323 1.0 14.0 0.00 0.00 0.00 28 1009.8
20260505193329 84 64 1.0 14.0 0.00 0.00 0.00 26 1009.8
20260505193219 84 24 0.0 14.0 0.00 0.00 0.00 27 1009.9
20260505193118 84 346 0.0 14.0 0.00 0.00 0.00 27 1009.9
20260505193049 83 74 0.0 14.0 0.00 0.00 0.00 27 1009.4
20260505193020 84 298 1.0 14.0 0.00 0.00 0.00 27 1009.9
20260505192919 84 42 3.0 14.0 0.00 0.00 0.00 28 1009.9
20260505192832 84 40 3.0 14.0 0.00 0.00 0.00 27 1009.8
20260505192609 84 30 5.0 14.0 0.00 0.00 0.00 27 1009.8
20260505192522 84 150 2.0 10.0 0.00 0.00 0.00 27 1009.8
20260505192448 84 287 1.0 9.0 0.00 0.00 0.00 28 1009.9
20260505192212 84 95 1.0 12.0 0.00 0.00 0.00 30 1010.0
20260505192138 84 290 0.0 15.0 0.00 0.00 0.00 29 1010.0
20260505192030 84 301 1.0 15.0 0.00 0.00 0.00 28 1010.0
20260505191940 84 17 1.0 15.0 0.00 0.00 0.00 28 1010.0
20260505191852 84 13 1.0 15.0 0.00 0.00 0.00 29 1010.0
20260505191709 84 336 2.0 15.0 0.00 0.00 0.00 28 1010.0
20260505191623 84 71 2.0 15.0 0.00 0.00 0.00 29 1010.0
20260505191609 83 28 1.0 15.0 0.00 0.00 0.00 29 1009.7
20260505191529 84 95 2.0 15.0 0.00 0.00 0.00 28 1010.1
20260505191414 84 10 2.0 15.0 0.00 0.00 0.00 27 1010.0
20260505191324 84 36 4.0 15.0 0.00 0.00 0.00 27 1010.0
20260505191210 84 12 4.0 15.0 0.00 0.00 0.00 28 1010.0
20260505191123 84 15 2.0 13.0 0.00 0.00 0.00 28 1010.0
20260505191010 84 54 1.0 13.0 0.00 0.00 0.00 29 1010.1
20260505190935 84 321 1.0 18.0 0.00 0.00 0.00 28 1010.2
20260505190820 84 109 1.0 18.0 0.00 0.00 0.00 28 1010.2
20260505190711 84 42 0.0 18.0 0.00 0.00 0.00 31 1010.0
20260505190623 83 58 0.0 19.0 0.00 0.00 0.00 29 1010.0
20260505190510 83 196 3.0 19.0 0.00 0.00 0.00 28 1010.0
20260505190416 83 148 5.0 19.0 0.00 0.00 0.00 28 1010.2
20260505190321 83 39 4.0 19.0 0.00 0.00 0.00 29 1010.2
20260505190211 84 78 4.0 19.0 0.00 0.00 0.00 29 1010.1
20260505190124 84 71 3.0 19.0 0.00 0.00 0.00 29 1010.1
20260505190115 83 52 2.0 19.0 0.00 0.00 0.00 29 1009.6
20260505190031 84 51 2.0 19.0 0.00 0.00 0.00 29 1010.1
20260505185943 84 49 4.0 19.0 0.00 0.00 0.00 29 1010.1
20260505185827 84 67 5.0 19.0 0.00 0.00 0.00 30 1010.1
20260505185713 84 9 4.0 15.0 0.00 0.00 0.00 30 1010.1
20260505185619 83 15 2.0 15.0 0.00 0.00 0.00 30 1010.1
20260505185509 83 46 1.0 15.0 0.00 0.00 0.00 30 1010.2
20260505185442 83 42 3.0 15.0 0.00 0.00 0.00 30 1010.2
20260505185347 83 46 3.0 15.0 0.00 0.00 0.00 31 1010.2
20260505185212 84 62 2.0 13.0 0.00 0.00 0.00 30 1010.2
20260505185125 84 53 2.0 13.0 0.00 0.00 0.00 30 1010.2
20260505185031 84 329 1.0 13.0 0.00 0.00 0.00 32 1010.3
20260505184942 83 50 0.0 16.0 0.00 0.00 0.00 31 1010.3
20260505184835 83 24 0.0 16.0 0.00 0.00 0.00 32 1010.3
20260505184713 83 302 0.0 16.0 0.00 0.00 0.00 31 1010.3
20260505184646 83 47 0.0 16.0 0.00 0.00 0.00 31 1010.3
20260505184547 83 54 0.0 16.0 0.00 0.00 0.00 31 1009.9
20260505184511 83 234 2.0 16.0 0.00 0.00 0.00 30 1010.3
20260505184417 83 147 3.0 16.0 0.00 0.00 0.00 31 1010.2
20260505184334 83 40 2.0 16.0 0.00 0.00 0.00 32 1010.2
20260505184220 83 69 3.0 16.0 0.00 0.00 0.00 32 1010.3
20260505184126 83 130 6.0 16.0 0.00 0.00 0.00 31 1010.4
20260505184012 83 88 7.0 15.0 0.00 0.00 0.00 31 1010.4
20260505183918 83 33 7.0 15.0 0.00 0.00 0.00 31 1010.3
20260505183824 83 17 6.0 15.0 0.00 0.00 0.00 31 1010.3
20260505183741 83 49 4.0 15.0 0.00 0.00 0.00 30 1010.3
20260505183626 83 53 3.0 11.0 0.00 0.00 0.00 30 1010.4
20260505183511 83 315 4.0 16.0 0.00 0.00 0.00 30 1010.3
20260505183418 83 43 2.0 16.0 0.00 0.00 0.00 30 1010.5
20260505183331 83 49 0.0 16.0 0.00 0.00 0.00 31 1010.5
20260505183221 83 306 1.0 16.0 0.00 0.00 0.00 32 1010.5
20260505183141 83 267 1.0 16.0 0.00 0.00 0.00 31 1010.2
20260505183127 83 323 2.0 16.0 0.00 0.00 0.00 31 1010.5
20260505183012 84 311 1.0 16.0 0.00 0.00 0.00 31 1010.6
20260505182919 84 326 3.0 16.0 0.00 0.00 0.00 32 1010.6
20260505182852 84 241 4.0 16.0 0.00 0.00 0.00 31 1010.7
20260505182736 84 63 2.0 16.0 0.00 0.00 0.00 32 1010.6
20260505182621 84 292 1.0 9.0 0.00 0.00 0.00 32 1010.6
20260505182511 84 65 1.0 9.0 0.00 0.00 0.00 32 1010.6
20260505182424 84 66 0.0 9.0 0.00 0.00 0.00 31 1010.6
20260505182310 84 235 1.0 10.0 0.00 0.00 0.00 32 1010.7
20260505182216 84 45 1.0 12.0 0.00 0.00 0.00 33 1010.8
20260505182123 84 51 2.0 12.0 0.00 0.00 0.00 33 1010.8
20260505182032 84 234 2.0 12.0 0.00 0.00 0.00 33 1010.6
20260505181924 84 22 1.0 12.0 0.00 0.00 0.00 32 1010.6
20260505181810 84 37 1.0 12.0 0.00 0.00 0.00 33 1010.6
20260505181717 84 230 0.0 12.0 0.00 0.00 0.00 33 1010.5
20260505181622 84 38 0.0 12.0 0.00 0.00 0.00 33 1010.5
20260505181535 84 15 2.0 12.0 0.00 0.00 0.00 32 1010.7
20260505181532 83 20 2.0 12.0 0.00 0.00 0.00 32 1010.3
20260505181425 84 28 2.0 12.0 0.00 0.00 0.00 31 1010.7
20260505181313 84 19 1.0 9.0 0.00 0.00 0.00 32 1010.5
20260505181237 84 34 1.0 9.0 0.00 0.00 0.00 32 1010.6
20260505181122 84 44 1.0 10.0 0.00 0.00 0.00 33 1010.6
20260505181035 84 113 1.0 10.0 0.00 0.00 0.00 33 1010.7
20260505180921 84 53 0.0 10.0 0.00 0.00 0.00 33 1010.8
20260505180811 84 254 0.0 10.0 0.00 0.00 0.00 33 1010.8
20260505180717 84 305 0.0 10.0 0.00 0.00 0.00 33 1010.9
20260505180623 84 111 0.0 10.0 0.00 0.00 0.00 33 1010.9
20260505180536 84 287 0.0 10.0 0.00 0.00 0.00 33 1011.0
20260505180421 84 51 0.0 10.0 0.00 0.00 0.00 34 1011.0
20260505180347 84 360 1.0 10.0 0.00 0.00 0.00 32 1011.0
20260505180224 84 40 1.0 10.0 0.00 0.00 0.00 32 1011.0
20260505180129 84 270 1.0 10.0 0.00 0.00 0.00 31 1011.0
20260505180107 83 300 0.0 10.0 0.00 0.00 0.00 33 1010.6
20260505180035 84 102 1.0 10.0 0.00 0.00 0.00 33 1011.0
20260505175948 84 295 2.0 10.0 0.00 0.00 0.00 33 1011.0
20260505175813 84 15 4.0 10.0 0.00 0.00 0.00 33 1011.0
20260505175719 83 26 3.0 10.0 0.00 0.00 0.00 33 1011.0
20260505175609 83 27 2.0 10.0 0.00 0.00 0.00 34 1010.9
20260505175515 83 94 0.0 9.0 0.00 0.00 0.00 33 1010.9
20260505175428 83 284 0.0 9.0 0.00 0.00 0.00 33 1010.9
20260505175334 83 50 0.0 9.0 0.00 0.00 0.00 34 1011.0
20260505175220 83 313 1.0 11.0 0.00 0.00 0.00 33 1011.0
20260505175110 83 76 1.0 11.0 0.00 0.00 0.00 33 1011.2
20260505175016 83 78 1.0 11.0 0.00 0.00 0.00 36 1011.1
20260505174922 83 5 0.0 11.0 0.00 0.00 0.00 34 1011.1
20260505174835 83 28 0.0 11.0 0.00 0.00 0.00 34 1011.1
20260505174721 83 5 0.0 12.0 0.00 0.00 0.00 35 1011.0
20260505174627 83 26 0.0 12.0 0.00 0.00 0.00 36 1011.1
20260505174601 82 322 1.0 12.0 0.00 0.00 0.00 36 1010.7
20260505174516 83 34 2.0 12.0 0.00 0.00 0.00 34 1011.1
20260505174422 83 59 2.0 12.0 0.00 0.00 0.00 34 1011.1
20260505174328 83 109 2.0 12.0 0.00 0.00 0.00 37 1011.1
20260505174241 83 294 1.0 12.0 0.00 0.00 0.00 36 1011.1
20260505174118 83 5 1.0 12.0 0.00 0.00 0.00 35 1011.2
20260505174017 82 77 2.0 12.0 0.00 0.00 0.00 36 1011.2
20260505173931 82 323 1.0 12.0 0.00 0.00 0.00 35 1011.2
20260505173854 82 15 1.0 11.0 0.00 0.00 0.00 36 1011.1
20260505173732 82 5 3.0 11.0 0.00 0.00 0.00 36 1011.1
20260505173651 82 119 2.0 12.0 0.00 0.00 0.00 37 1011.1
20260505173534 82 55 1.0 12.0 0.00 0.00 0.00 37 1011.1
20260505173413 82 11 0.0 12.0 0.00 0.00 0.00 37 1011.1
20260505173326 82 10 0.0 12.0 0.00 0.00 0.00 38 1011.1
20260505173237 82 16 2.0 12.0 0.00 0.00 0.00 38 1011.1
20260505173122 82 181 2.0 12.0 0.00 0.00 0.00 38 1011.1
20260505173034 82 62 1.0 12.0 0.00 0.00 0.00 38 1011.1
20260505173015 81 5 1.0 12.0 0.00 0.00 0.00 37 1010.7
20260505172941 82 269 3.0 12.0 0.00 0.00 0.00 37 1011.1
20260505172825 82 74 4.0 12.0 0.00 0.00 0.00 37 1011.1
20260505172739 82 12 3.0 10.0 0.00 0.00 0.00 38 1011.2
20260505172623 82 65 2.0 10.0 0.00 0.00 0.00 38 1011.2
20260505172513 82 119 2.0 10.0 0.00 0.00 0.00 38 1011.2
20260505172420 82 91 2.0 10.0 0.00 0.00 0.00 38 1011.2
20260505172325 82 59 0.0 10.0 0.00 0.00 0.00 39 1011.1
20260505172211 82 188 2.0 10.0 0.00 0.00 0.00 38 1011.1
20260505172124 82 102 2.0 10.0 0.00 0.00 0.00 38 1011.1
20260505172014 82 19 2.0 10.0 0.00 0.00 0.00 39 1011.1
20260505171920 82 57 2.0 10.0 0.00 0.00 0.00 41 1011.1
20260505171826 82 79 1.0 11.0 0.00 0.00 0.00 39 1011.1
20260505171739 82 55 1.0 11.0 0.00 0.00 0.00 40 1011.2
20260505171621 82 17 2.0 11.0 0.00 0.00 0.00 42 1011.2
20260505171556 82 181 5.0 11.0 0.00 0.00 0.00 39 1011.1
20260505171503 81 79 4.0 11.0 0.00 0.00 0.00 39 1010.7
20260505171417 82 15 3.0 11.0 0.00 0.00 0.00 40 1011.2
20260505171326 82 40 1.0 11.0 0.00 0.00 0.00 40 1011.2
20260505171212 82 16 2.0 11.0 0.00 0.00 0.00 40 1011.3
20260505171118 82 63 4.0 11.0 0.00 0.00 0.00 39 1011.3
20260505171031 82 73 3.0 11.0 0.00 0.00 0.00 39 1011.3
20260505170917 82 69 2.0 11.0 0.00 0.00 0.00 40 1011.3
20260505170843 82 13 2.0 11.0 0.00 0.00 0.00 40 1011.3
20260505170712 82 42 0.0 9.0 0.00 0.00 0.00 41 1011.3
20260505170625 82 254 0.0 9.0 0.00 0.00 0.00 41 1011.3
20260505170531 82 40 0.0 9.0 0.00 0.00 0.00 40 1011.3
20260505170414 82 89 1.0 9.0 0.00 0.00 0.00 39 1011.3
20260505170320 82 271 3.0 9.0 0.00 0.00 0.00 39 1011.3
20260505170210 83 70 4.0 9.0 0.00 0.00 0.00 39 1011.4
20260505170143 83 25 2.0 9.0 0.00 0.00 0.00 39 1011.4
20260505170027 83 105 1.0 9.0 0.00 0.00 0.00 38 1011.4
20260505165913 83 48 0.0 8.0 0.00 0.00 0.00 38 1011.4
20260505165826 83 93 0.0 9.0 0.00 0.00 0.00 36 1011.4
20260505165712 83 293 0.0 9.0 0.00 0.00 0.00 36 1011.5
20260505165622 83 67 0.0 9.0 0.00 0.00 0.00 36 1011.5
20260505165555 83 86 0.0 9.0 0.00 0.00 0.00 36 1011.4
20260505165413 82 324 0.0 9.0 0.00 0.00 0.00 39 1011.5
20260505165326 82 40 1.0 9.0 0.00 0.00 0.00 36 1011.5
20260505165212 82 94 1.0 9.0 0.00 0.00 0.00 36 1011.6
20260505165115 82 329 2.0 9.0 0.00 0.00 0.00 37 1011.6
20260505165022 82 59 2.0 9.0 0.00 0.00 0.00 36 1011.5
20260505164949 82 18 0.0 11.0 0.00 0.00 0.00 36 1011.5
20260505164814 81 337 0.0 11.0 0.00 0.00 0.00 35 1011.5
20260505164720 81 12 1.0 11.0 0.00 0.00 0.00 37 1011.5
20260505164653 81 55 1.0 11.0 0.00 0.00 0.00 34 1011.6
20260505164518 81 310 0.0 11.0 0.00 0.00 0.00 35 1011.6
20260505164417 81 196 0.0 11.0 0.00 0.00 0.00 36 1011.7
20260505164331 81 172 2.0 11.0 0.00 0.00 0.00 34 1011.7
20260505164216 81 315 3.0 11.0 0.00 0.00 0.00 34 1011.7
20260505164122 81 338 2.0 8.0 0.00 0.00 0.00 35 1011.7
20260505164034 82 88 2.0 8.0 0.00 0.00 0.00 36 1011.7
20260505163918 82 355 0.0 1.0 0.00 0.00 0.00 34 1011.8
20260505163821 82 312 0.0 1.0 0.00 0.00 0.00 35 1011.8
20260505163711 82 48 0.0 1.0 0.00 0.00 0.00 36 1011.7
20260505163618 82 63 0.0 1.0 0.00 0.00 0.00 35 1011.8
20260505163523 82 19 0.0 1.0 0.00 0.00 0.00 35 1011.8
20260505163410 82 40 0.0 1.0 0.00 0.00 0.00 35 1011.9
20260505163323 82 36 0.0 1.0 0.00 0.00 0.00 36 1011.9
20260505163212 82 248 0.0 1.0 0.00 0.00 0.00 35 1011.9
20260505163138 82 329 0.0 9.0 0.00 0.00 0.00 38 1011.9
20260505163027 82 44 0.0 9.0 0.00 0.00 0.00 39 1011.9
20260505163012 81 84 0.0 9.0 0.00 0.00 0.00 39 1011.6
20260505162913 82 119 0.0 9.0 0.00 0.00 0.00 35 1011.9
20260505162819 82 52 0.0 9.0 0.00 0.00 0.00 36 1011.9
20260505162752 82 139 0.0 9.0 0.00 0.00 0.00 34 1011.9
20260505162609 82 55 0.0 9.0 0.00 0.00 0.00 37 1011.9
20260505162546 82 107 0.0 9.0 0.00 0.00 0.00 36 1011.9
20260505162411 82 82 1.0 9.0 0.00 0.00 0.00 36 1011.9
20260505162317 82 108 1.0 11.0 0.00 0.00 0.00 35 1012.0
20260505162230 82 355 2.0 11.0 0.00 0.00 0.00 35 1012.0
20260505162117 82 251 2.0 11.0 0.00 0.00 0.00 36 1012.0
20260505162023 82 316 3.0 11.0 0.00 0.00 0.00 35 1012.0
20260505161932 82 294 2.0 11.0 0.00 0.00 0.00 36 1012.0
20260505161825 81 15 0.0 11.0 0.00 0.00 0.00 36 1012.0
20260505161712 81 71 1.0 11.0 0.00 0.00 0.00 36 1012.0
20260505161618 81 22 1.0 11.0 0.00 0.00 0.00 34 1012.0
20260505161616 81 266 2.0 11.0 0.00 0.00 0.00 35 1011.7
20260505161543 82 334 3.0 11.0 0.00 0.00 0.00 35 1012.0
20260505161435 82 267 4.0 11.0 0.00 0.00 0.00 34 1012.0
20260505161325 82 329 1.0 10.0 0.00 0.00 0.00 37 1012.1
20260505161211 82 5 0.0 5.0 0.00 0.00 0.00 37 1012.1
20260505161117 82 70 0.0 5.0 0.00 0.00 0.00 40 1012.1
20260505161023 82 86 0.0 5.0 0.00 0.00 0.00 36 1012.1
20260505160909 81 5 1.0 9.0 0.00 0.00 0.00 36 1012.1
20260505160821 81 243 1.0 9.0 0.00 0.00 0.00 36 1012.1
20260505160711 81 47 1.0 9.0 0.00 0.00 0.00 36 1012.1
20260505160617 81 316 0.0 9.0 0.00 0.00 0.00 36 1012.1
20260505160550 81 77 0.0 9.0 0.00 0.00 0.00 37 1012.1
20260505160415 81 53 0.0 9.0 0.00 0.00 0.00 37 1012.1
20260505160321 81 332 1.0 9.0 0.00 0.00 0.00 37 1012.1
20260505160224 81 273 1.0 9.0 0.00 0.00 0.00 36 1012.2
20260505160114 81 19 1.0 10.0 0.00 0.00 0.00 37 1012.2